Observation data for Big Lake on 02/21/2019      Previous  Date  Next       Current Mesonet Observations  Soil Data  Daily Summary Page  Observations in Plain Language
KBI1 210600Z 16010KT 08/M04 A2989 RMK A01 T00831036  RH  043%=      5-min Rain = 0
KBI1 210601Z 16009KT 08/M04 A2989 RMK A01 T00821036  RH  043%=      5-min Rain = 0
KBI1 210602Z 15009KT 08/M04 A2989 RMK A01 T00821036  RH  043%=      5-min Rain = 0
KBI1 210603Z 16010KT 08/M04 A2989 RMK A01 T00821036  RH  043%=      5-min Rain = 0
KBI1 210604Z 15010KT 08/M04 A2989 RMK A01 T00811036  RH  043%=      5-min Rain = 0
KBI1 210605Z 15010KT 08/M04 A2989 RMK A01 T00821036  RH  043%=      5-min Rain = 0
KBI1 210606Z 15010KT 08/M04 A2989 RMK A01 T00811036  RH  043%=      5-min Rain = 0
KBI1 210607Z 16010KT 08/M04 A2989 RMK A01 T00811036  RH  043%=      5-min Rain = 0
KBI1 210608Z 15010KT 08/M04 A2989 RMK A01 T00811036  RH  044%=      5-min Rain = 0
KBI1 210609Z 15011KT 08/M04 A2989 RMK A01 T00801036  RH  044%=      5-min Rain = 0
KBI1 210610Z 15011KT 08/M04 A2989 RMK A01 T00801036  RH  044%=      5-min Rain = 0
KBI1 210611Z 16010KT 08/M04 A2989 RMK A01 T00801036  RH  044%=      5-min Rain = 0
KBI1 210612Z 16011KT 08/M04 A2989 RMK A01 T00791036  RH  044%=      5-min Rain = 0
KBI1 210613Z 15011KT 08/M04 A2989 RMK A01 T00791036  RH  044%=      5-min Rain = 0
KBI1 210614Z 16011KT 08/M04 A2989 RMK A01 T00791035  RH  044%=      5-min Rain = 0
KBI1 210615Z 16010KT 08/M04 A2989 RMK A01 T00791036  RH  044%=      5-min Rain = 0
KBI1 210616Z 16011KT 08/M04 A2989 RMK A01 T00791035  RH  044%=      5-min Rain = 0
KBI1 210617Z 16012KT 08/M04 A2989 RMK A01 T00781036  RH  044%=      5-min Rain = 0
KBI1 210618Z 16011KT 08/M04 A2989 RMK A01 T00781036  RH  044%=      5-min Rain = 0
KBI1 210619Z 16011KT 08/M04 A2989 RMK A01 T00781035  RH  045%=      5-min Rain = 0
KBI1 210620Z 16011KT 08/M04 A2989 RMK A01 T00781035  RH  045%=      5-min Rain = 0
KBI1 210621Z 16010KT 08/M04 A2989 RMK A01 T00781035  RH  045%=      5-min Rain = 0
KBI1 210622Z 16011KT 08/M04 A2989 RMK A01 T00781035  RH  045%=      5-min Rain = 0
KBI1 210623Z 16011KT 08/M04 A2989 RMK A01 T00771035  RH  045%=      5-min Rain = 0
KBI1 210624Z 16011KT 08/M04 A2989 RMK A01 T00771035  RH  045%=      5-min Rain = 0
KBI1 210625Z 16011KT 08/M04 A2989 RMK A01 T00771035  RH  045%=      5-min Rain = 0
KBI1 210626Z 16010KT 08/M04 A2989 RMK A01 T00761035  RH  045%=      5-min Rain = 0
KBI1 210627Z 16010KT 08/M04 A2989 RMK A01 T00761035  RH  045%=      5-min Rain = 0
KBI1 210628Z 16009KT 08/M03 A2989 RMK A01 T00761034  RH  046%=      5-min Rain = 0
KBI1 210629Z 16010KT 08/M03 A2989 RMK A01 T00751034  RH  046%=      5-min Rain = 0
KBI1 210630Z 16010KT 07/M03 A2989 RMK A01 T00741034  RH  046%=      5-min Rain = 0
KBI1 210631Z 16009KT 07/M03 A2989 RMK A01 T00741034  RH  046%=      5-min Rain = 0
KBI1 210632Z 16009KT 07/M03 A2989 RMK A01 T00731033  RH  047%=      5-min Rain = 0
KBI1 210633Z 16008KT 07/M03 A2989 RMK A01 T00721033  RH  047%=      5-min Rain = 0
KBI1 210634Z 16009KT 07/M03 A2989 RMK A01 T00711033  RH  047%=      5-min Rain = 0
KBI1 210635Z 16009KT 07/M03 A2989 RMK A01 T00711033  RH  047%=      5-min Rain = 0
KBI1 210636Z 16009KT 07/M03 A2989 RMK A01 T00711033  RH  048%=      5-min Rain = 0
KBI1 210637Z 16008KT 07/M03 A2989 RMK A01 T00711033  RH  048%=      5-min Rain = 0
KBI1 210638Z 16009KT 07/M03 A2989 RMK A01 T00701033  RH  048%=      5-min Rain = 0
KBI1 210639Z 16008KT 07/M03 A2989 RMK A01 T00701032  RH  048%=      5-min Rain = 0
KBI1 210640Z 16009KT 07/M03 A2989 RMK A01 T00691032  RH  048%=      5-min Rain = 0
KBI1 210641Z 16008KT 07/M03 A2988 RMK A01 T00691033  RH  048%=      5-min Rain = 0
KBI1 210642Z 16009KT 07/M03 A2988 RMK A01 T00691032  RH  048%=      5-min Rain = 0
KBI1 210643Z 17008KT 07/M03 A2988 RMK A01 T00691032  RH  049%=      5-min Rain = 0
KBI1 210644Z 16009KT 07/M03 A2988 RMK A01 T00691031  RH  049%=      5-min Rain = 0
KBI1 210645Z 17007KT 07/M03 A2988 RMK A01 T00691031  RH  049%=      5-min Rain = 0
KBI1 210646Z 16008KT 07/M03 A2988 RMK A01 T00681031  RH  049%=      5-min Rain = 0
KBI1 210647Z 16008KT 07/M03 A2988 RMK A01 T00681031  RH  049%=      5-min Rain = 0
KBI1 210648Z 17007KT 07/M03 A2989 RMK A01 T00681030  RH  049%=      5-min Rain = 0
KBI1 210649Z 17008KT 07/M03 A2989 RMK A01 T00681030  RH  050%=      5-min Rain = 0
KBI1 210650Z 17009KT 07/M03 A2989 RMK A01 T00681030  RH  050%=      5-min Rain = 0
KBI1 210651Z 17009KT 07/M03 A2989 RMK A01 T00681030  RH  050%=      5-min Rain = 0
KBI1 210652Z 17009KT 07/M03 A2989 RMK A01 T00681030  RH  050%=      5-min Rain = 0
KBI1 210653Z 17010KT 07/M03 A2989 RMK A01 T00681030  RH  050%=      5-min Rain = 0
KBI1 210654Z 17008KT 07/M03 A2988 RMK A01 T00681029  RH  050%=      5-min Rain = 0
KBI1 210655Z 17010KT 07/M03 A2988 RMK A01 T00681029  RH  050%=      5-min Rain = 0
KBI1 210656Z 16011KT 07/M03 A2988 RMK A01 T00691029  RH  050%=      5-min Rain = 0
KBI1 210657Z 16010KT 07/M03 A2988 RMK A01 T00691029  RH  050%=      5-min Rain = 0
KBI1 210658Z 16010KT 07/M03 A2988 RMK A01 T00691029  RH  050%=      5-min Rain = 0
KBI1 210659Z 16010KT 07/M03 A2988 RMK A01 T00701029  RH  050%=      5-min Rain = 0
KBI1 210700Z 16010KT 07/M03 A2988 RMK A01 T00701028  RH  050%=      5-min Rain = 0
KBI1 210701Z 16011KT 07/M03 A2988 RMK A01 T00701028  RH  050%=      5-min Rain = 0
KBI1 210702Z 17011KT 07/M03 A2988 RMK A01 T00701027  RH  050%=      5-min Rain = 0
KBI1 210703Z 17011KT 07/M03 A2988 RMK A01 T00701027  RH  050%=      5-min Rain = 0
KBI1 210704Z 16010KT 07/M03 A2988 RMK A01 T00711027  RH  050%=      5-min Rain = 0
KBI1 210705Z 16011KT 07/M03 A2988 RMK A01 T00711027  RH  050%=      5-min Rain = 0
KBI1 210706Z 17011KT 07/M03 A2988 RMK A01 T00721027  RH  049%=      5-min Rain = 0
KBI1 210707Z 16010KT 07/M03 A2988 RMK A01 T00721027  RH  049%=      5-min Rain = 0
KBI1 210708Z 17010KT 07/M03 A2988 RMK A01 T00721027  RH  050%=      5-min Rain = 0
KBI1 210709Z 16011KT 07/M03 A2988 RMK A01 T00721026  RH  050%=      5-min Rain = 0
KBI1 210710Z 17011KT 07/M03 A2988 RMK A01 T00721026  RH  050%=      5-min Rain = 0
KBI1 210711Z 16009KT 07/M03 A2988 RMK A01 T00721026  RH  050%=      5-min Rain = 0
KBI1 210712Z 16009KT 07/M03 A2988 RMK A01 T00721026  RH  050%=      5-min Rain = 0
KBI1 210713Z 16011KT 07/M03 A2988 RMK A01 T00721026  RH  050%=      5-min Rain = 0
KBI1 210714Z 16010KT 07/M03 A2988 RMK A01 T00731026  RH  049%=      5-min Rain = 0
KBI1 210715Z 16011KT 07/M03 A2988 RMK A01 T00741026  RH  049%=      5-min Rain = 0
KBI1 210716Z 16010KT 07/M03 A2988 RMK A01 T00741026  RH  049%=      5-min Rain = 0
KBI1 210717Z 16010KT 08/M03 A2988 RMK A01 T00751026  RH  049%=      5-min Rain = 0
KBI1 210718Z 16010KT 08/M03 A2988 RMK A01 T00751025  RH  049%=      5-min Rain = 0
KBI1 210719Z 16010KT 08/M03 A2988 RMK A01 T00751025  RH  049%=      5-min Rain = 0
KBI1 210720Z 16010KT 08/M03 A2988 RMK A01 T00751025  RH  049%=      5-min Rain = 0
KBI1 210721Z 16011KT 08/M03 A2988 RMK A01 T00751025  RH  049%=      5-min Rain = 0
KBI1 210722Z 16010KT 08/M03 A2988 RMK A01 T00751025  RH  049%=      5-min Rain = 0
KBI1 210723Z 16010KT 08/M03 A2988 RMK A01 T00761025  RH  049%=      5-min Rain = 0
KBI1 210724Z 16009KT 08/M03 A2988 RMK A01 T00761025  RH  049%=      5-min Rain = 0
KBI1 210725Z 16009KT 08/M03 A2988 RMK A01 T00751025  RH  049%=      5-min Rain = 0
KBI1 210726Z 16009KT 08/M02 A2988 RMK A01 T00761024  RH  049%=      5-min Rain = 0
KBI1 210727Z 16009KT 08/M03 A2988 RMK A01 T00761025  RH  049%=      5-min Rain = 0
KBI1 210728Z 16007KT 08/M03 A2988 RMK A01 T00781025  RH  048%=      5-min Rain = 0
KBI1 210729Z 16007KT 08/M03 A2988 RMK A01 T00781025  RH  048%=      5-min Rain = 0
KBI1 210730Z 16008KT 08/M03 A2988 RMK A01 T00781025  RH  048%=      5-min Rain = 0
KBI1 210731Z 16007KT 08/M03 A2988 RMK A01 T00781025  RH  048%=      5-min Rain = 0
KBI1 210732Z 16007KT 08/M03 A2988 RMK A01 T00791025  RH  048%=      5-min Rain = 0
KBI1 210733Z 16006KT 08/M03 A2988 RMK A01 T00791025  RH  048%=      5-min Rain = 0
KBI1 210734Z 16006KT 08/M03 A2988 RMK A01 T00791025  RH  048%=      5-min Rain = 0
KBI1 210735Z 16008KT 08/M03 A2988 RMK A01 T00791025  RH  048%=      5-min Rain = 0
KBI1 210736Z 17007KT 08/M02 A2988 RMK A01 T00791024  RH  048%=      5-min Rain = 0
KBI1 210737Z 16006KT 08/M02 A2988 RMK A01 T00781024  RH  048%=      5-min Rain = 0
KBI1 210738Z 16006KT 08/M02 A2988 RMK A01 T00771024  RH  049%=      5-min Rain = 0
KBI1 210739Z 15005KT 08/M02 A2988 RMK A01 T00771024  RH  049%=      5-min Rain = 0
KBI1 210740Z 16006KT 08/M02 A2988 RMK A01 T00761024  RH  049%=      5-min Rain = 0
KBI1 210741Z 16006KT 08/M02 A2988 RMK A01 T00761024  RH  049%=      5-min Rain = 0
KBI1 210742Z 15007KT 08/M02 A2988 RMK A01 T00761024  RH  049%=      5-min Rain = 0
KBI1 210743Z 16008KT 08/M02 A2988 RMK A01 T00771023  RH  049%=      5-min Rain = 0
KBI1 210744Z 16007KT 08/M02 A2988 RMK A01 T00771024  RH  049%=      5-min Rain = 0
KBI1 210745Z 17007KT 08/M02 A2988 RMK A01 T00771023  RH  049%=      5-min Rain = 0
KBI1 210746Z 17007KT 08/M02 A2988 RMK A01 T00771023  RH  049%=      5-min Rain = 0
KBI1 210747Z 16007KT 08/M02 A2988 RMK A01 T00771023  RH  049%=      5-min Rain = 0
KBI1 210748Z 17008KT 08/M02 A2988 RMK A01 T00771022  RH  049%=      5-min Rain = 0
KBI1 210749Z 17009KT 08/M02 A2988 RMK A01 T00771023  RH  049%=      5-min Rain = 0
KBI1 210750Z 17007KT 08/M02 A2988 RMK A01 T00781023  RH  049%=      5-min Rain = 0
KBI1 210751Z 17008KT 08/M02 A2988 RMK A01 T00781023  RH  049%=      5-min Rain = 0
KBI1 210752Z 17007KT 08/M02 A2988 RMK A01 T00791023  RH  049%=      5-min Rain = 0
KBI1 210753Z 16007KT 08/M02 A2988 RMK A01 T00791023  RH  048%=      5-min Rain = 0
KBI1 210754Z 17008KT 08/M02 A2988 RMK A01 T00801022  RH  049%=      5-min Rain = 0
KBI1 210755Z 16006KT 08/M02 A2988 RMK A01 T00791023  RH  049%=      5-min Rain = 0
KBI1 210756Z 17007KT 08/M02 A2988 RMK A01 T00791023  RH  048%=      5-min Rain = 0
KBI1 210757Z 16007KT 08/M02 A2988 RMK A01 T00801022  RH  048%=      5-min Rain = 0
KBI1 210758Z 16007KT 08/M02 A2988 RMK A01 T00791022  RH  049%=      5-min Rain = 0
KBI1 210759Z 17008KT 08/M02 A2988 RMK A01 T00791023  RH  049%=      5-min Rain = 0
KBI1 210800Z 16008KT 08/M02 A2988 RMK A01 T00791022  RH  049%=      5-min Rain = 0
KBI1 210801Z 16007KT 08/M02 A2988 RMK A01 T00791022  RH  049%=      5-min Rain = 0
KBI1 210802Z 16008KT 08/M02 A2988 RMK A01 T00781022  RH  049%=      5-min Rain = 0
KBI1 210803Z 17008KT 08/M02 A2988 RMK A01 T00781022  RH  049%=      5-min Rain = 0
KBI1 210804Z 17009KT 08/M02 A2987 RMK A01 T00781022  RH  049%=      5-min Rain = 0
KBI1 210805Z 16008KT 08/M02 A2987 RMK A01 T00781022  RH  049%=      5-min Rain = 0
KBI1 210806Z 16008KT 08/M02 A2987 RMK A01 T00781022  RH  049%=      5-min Rain = 0
KBI1 210807Z 16009KT 08/M02 A2987 RMK A01 T00781022  RH  049%=      5-min Rain = 0
KBI1 210808Z 15008KT 08/M02 A2987 RMK A01 T00781022  RH  049%=      5-min Rain = 0
KBI1 210809Z 16008KT 08/M02 A2987 RMK A01 T00781023  RH  049%=      5-min Rain = 0
KBI1 210810Z 15008KT 08/M02 A2987 RMK A01 T00781023  RH  049%=      5-min Rain = 0
KBI1 210811Z 15007KT 08/M02 A2987 RMK A01 T00781023  RH  049%=      5-min Rain = 0
KBI1 210812Z 15007KT 08/M02 A2987 RMK A01 T00781023  RH  049%=      5-min Rain = 0
KBI1 210813Z 15007KT 08/M02 A2987 RMK A01 T00781023  RH  049%=      5-min Rain = 0
KBI1 210814Z 16007KT 08/M02 A2986 RMK A01 T00771023  RH  049%=      5-min Rain = 0
KBI1 210815Z 15006KT 08/M02 A2986 RMK A01 T00771023  RH  049%=      5-min Rain = 0
KBI1 210816Z 15007KT 08/M02 A2986 RMK A01 T00771023  RH  049%=      5-min Rain = 0
KBI1 210817Z 15008KT 08/M02 A2986 RMK A01 T00771023  RH  049%=      5-min Rain = 0
KBI1 210818Z 15007KT 08/M02 A2986 RMK A01 T00781023  RH  049%=      5-min Rain = 0
KBI1 210819Z 16006KT 08/M02 A2986 RMK A01 T00771023  RH  049%=      5-min Rain = 0
KBI1 210820Z 15008KT 08/M02 A2986 RMK A01 T00771023  RH  049%=      5-min Rain = 0
KBI1 210821Z 15008KT 08/M02 A2987 RMK A01 T00771023  RH  049%=      5-min Rain = 0
KBI1 210822Z 15008KT 08/M02 A2987 RMK A01 T00771023  RH  049%=      5-min Rain = 0
KBI1 210823Z 16007KT 08/M02 A2987 RMK A01 T00781023  RH  049%=      5-min Rain = 0
KBI1 210824Z 15008KT 08/M02 A2987 RMK A01 T00781023  RH  049%=      5-min Rain = 0
KBI1 210825Z 15008KT 08/M02 A2986 RMK A01 T00781023  RH  049%=      5-min Rain = 0
KBI1 210826Z 15007KT 08/M02 A2986 RMK A01 T00771023  RH  049%=      5-min Rain = 0
KBI1 210827Z 15007KT 08/M02 A2986 RMK A01 T00771023  RH  049%=      5-min Rain = 0
KBI1 210828Z 15009G14KT 08/M02 A2986 RMK A01 T00771023  RH  049%=      5-min Rain = 0
KBI1 210829Z 16009KT 08/M02 A2986 RMK A01 T00771023  RH  049%=      5-min Rain = 0
KBI1 210830Z 15010KT 08/M02 A2986 RMK A01 T00781023  RH  049%=      5-min Rain = 0
KBI1 210831Z 16007KT 08/M02 A2986 RMK A01 T00781023  RH  049%=      5-min Rain = 0
KBI1 210832Z 15009KT 08/M02 A2986 RMK A01 T00781022  RH  049%=      5-min Rain = 0
KBI1 210833Z 15009KT 08/M02 A2986 RMK A01 T00781022  RH  049%=      5-min Rain = 0
KBI1 210834Z 15009KT 08/M02 A2986 RMK A01 T00771023  RH  049%=      5-min Rain = 0
KBI1 210835Z 16008KT 08/M02 A2986 RMK A01 T00771023  RH  049%=      5-min Rain = 0
KBI1 210836Z 16008KT 08/M02 A2986 RMK A01 T00771023  RH  049%=      5-min Rain = 0
KBI1 210837Z 15009KT 08/M02 A2986 RMK A01 T00781023  RH  049%=      5-min Rain = 0
KBI1 210838Z 16010KT 08/M02 A2986 RMK A01 T00781023  RH  049%=      5-min Rain = 0
KBI1 210839Z 15011KT 08/M02 A2986 RMK A01 T00781023  RH  049%=      5-min Rain = 0
KBI1 210840Z 16008KT 08/M02 A2986 RMK A01 T00791023  RH  048%=      5-min Rain = 0
KBI1 210841Z 15008KT 08/M02 A2986 RMK A01 T00791023  RH  048%=      5-min Rain = 0
KBI1 210842Z 15008KT 08/M02 A2986 RMK A01 T00791023  RH  049%=      5-min Rain = 0
KBI1 210843Z 16009KT 08/M02 A2986 RMK A01 T00791023  RH  049%=      5-min Rain = 0
KBI1 210844Z 15009KT 08/M02 A2986 RMK A01 T00791023  RH  049%=      5-min Rain = 0
KBI1 210845Z 17009KT 08/M02 A2986 RMK A01 T00791023  RH  048%=      5-min Rain = 0
KBI1 210846Z 16010KT 08/M02 A2986 RMK A01 T00791023  RH  048%=      5-min Rain = 0
KBI1 210847Z 16010G15KT 08/M02 A2986 RMK A01 T00791023  RH  048%=      5-min Rain = 0
KBI1 210848Z 16009KT 08/M02 A2986 RMK A01 T00801023  RH  048%=      5-min Rain = 0
KBI1 210849Z 16008KT 08/M02 A2986 RMK A01 T00801023  RH  048%=      5-min Rain = 0
KBI1 210850Z 16010KT 08/M02 A2986 RMK A01 T00801023  RH  048%=      5-min Rain = 0
KBI1 210851Z 16009KT 08/M02 A2986 RMK A01 T00811023  RH  048%=      5-min Rain = 0
KBI1 210852Z 16009KT 08/M02 A2986 RMK A01 T00811024  RH  048%=      5-min Rain = 0
KBI1 210853Z 15010KT 08/M02 A2986 RMK A01 T00811024  RH  047%=      5-min Rain = 0
KBI1 210854Z 16009KT 08/M02 A2986 RMK A01 T00821024  RH  047%=      5-min Rain = 0
KBI1 210855Z 15007KT 08/M02 A2986 RMK A01 T00821024  RH  047%=      5-min Rain = 0
KBI1 210856Z 16007G12KT 08/M02 A2986 RMK A01 T00821024  RH  047%=      5-min Rain = 0
KBI1 210857Z 15008G13KT 08/M02 A2986 RMK A01 T00821023  RH  047%=      5-min Rain = 0
KBI1 210858Z 15009KT 08/M02 A2986 RMK A01 T00821024  RH  047%=      5-min Rain = 0
KBI1 210859Z 15007KT 08/M02 A2986 RMK A01 T00821024  RH  047%=      5-min Rain = 0
KBI1 210900Z 16008KT 08/M02 A2986 RMK A01 T00831023  RH  047%=      5-min Rain = 0
KBI1 210901Z 16008KT 08/M02 A2986 RMK A01 T00831023  RH  047%=      5-min Rain = 0
KBI1 210902Z 16006KT 08/M02 A2986 RMK A01 T00821023  RH  048%=      5-min Rain = 0
KBI1 210903Z 16009KT 08/M02 A2986 RMK A01 T00811023  RH  048%=      5-min Rain = 0
KBI1 210904Z 16008G13KT 08/M02 A2986 RMK A01 T00811023  RH  048%=      5-min Rain = 0
KBI1 210905Z 16009KT 08/M02 A2986 RMK A01 T00811022  RH  048%=      5-min Rain = 0
KBI1 210906Z 16008KT 08/M02 A2986 RMK A01 T00811022  RH  048%=      5-min Rain = 0
KBI1 210907Z 17008KT 08/M02 A2986 RMK A01 T00811023  RH  048%=      5-min Rain = 0
KBI1 210908Z 16008KT 08/M02 A2986 RMK A01 T00811022  RH  048%=      5-min Rain = 0
KBI1 210909Z 17008KT 08/M02 A2986 RMK A01 T00811022  RH  048%=      5-min Rain = 0
KBI1 210910Z 17008KT 08/M02 A2987 RMK A01 T00801022  RH  049%=      5-min Rain = 0
KBI1 210911Z 17007KT 08/M02 A2987 RMK A01 T00801022  RH  048%=      5-min Rain = 0
KBI1 210912Z 17007KT 08/M02 A2987 RMK A01 T00801022  RH  049%=      5-min Rain = 0
KBI1 210913Z 17008KT 08/M02 A2987 RMK A01 T00791022  RH  049%=      5-min Rain = 0
KBI1 210914Z 17008KT 08/M02 A2987 RMK A01 T00801022  RH  049%=      5-min Rain = 0
KBI1 210915Z 17007KT 08/M02 A2987 RMK A01 T00801022  RH  048%=      5-min Rain = 0
KBI1 210916Z 16008KT 08/M02 A2986 RMK A01 T00801022  RH  048%=      5-min Rain = 0
KBI1 210917Z 16007KT 08/M02 A2986 RMK A01 T00801022  RH  048%=      5-min Rain = 0
KBI1 210918Z 16008KT 08/M02 A2986 RMK A01 T00811023  RH  048%=      5-min Rain = 0
KBI1 210919Z 16007KT 08/M02 A2986 RMK A01 T00811023  RH  048%=      5-min Rain = 0
KBI1 210920Z 16006KT 08/M02 A2986 RMK A01 T00811022  RH  048%=      5-min Rain = 0
KBI1 210921Z 16006KT 08/M02 A2986 RMK A01 T00811022  RH  048%=      5-min Rain = 0
KBI1 210922Z 16007KT 08/M02 A2986 RMK A01 T00811022  RH  048%=      5-min Rain = 0
KBI1 210923Z 16006KT 08/M02 A2986 RMK A01 T00801022  RH  048%=      5-min Rain = 0
KBI1 210924Z 16007KT 08/M02 A2986 RMK A01 T00811022  RH  048%=      5-min Rain = 0
KBI1 210925Z 16006KT 08/M02 A2986 RMK A01 T00811022  RH  048%=      5-min Rain = 0
KBI1 210926Z 15004KT 08/M02 A2986 RMK A01 T00811022  RH  048%=      5-min Rain = 0
KBI1 210927Z 16005KT 08/M02 A2986 RMK A01 T00801022  RH  048%=      5-min Rain = 0
KBI1 210928Z 16006KT 08/M02 A2986 RMK A01 T00801022  RH  048%=      5-min Rain = 0
KBI1 210929Z 15005KT 08/M02 A2986 RMK A01 T00801022  RH  048%=      5-min Rain = 0
KBI1 210930Z 16006KT 08/M02 A2986 RMK A01 T00801022  RH  048%=      5-min Rain = 0
KBI1 210931Z 16006KT 08/M02 A2986 RMK A01 T00801022  RH  049%=      5-min Rain = 0
KBI1 210932Z 16006KT 08/M02 A2986 RMK A01 T00801022  RH  048%=      5-min Rain = 0
KBI1 210933Z 16005KT 08/M02 A2986 RMK A01 T00801023  RH  048%=      5-min Rain = 0
KBI1 210934Z 17004KT 08/M02 A2986 RMK A01 T00801022  RH  048%=      5-min Rain = 0
KBI1 210935Z 16004KT 08/M02 A2985 RMK A01 T00801022  RH  049%=      5-min Rain = 0
KBI1 210936Z 16005KT 08/M02 A2985 RMK A01 T00801022  RH  049%=      5-min Rain = 0
KBI1 210937Z 16006KT 08/M02 A2986 RMK A01 T00801022  RH  049%=      5-min Rain = 0
KBI1 210938Z 17006KT 08/M02 A2986 RMK A01 T00791022  RH  049%=      5-min Rain = 0
KBI1 210939Z 16006KT 08/M02 A2986 RMK A01 T00791022  RH  049%=      5-min Rain = 0
KBI1 210940Z 17006KT 08/M02 A2986 RMK A01 T00791021  RH  049%=      5-min Rain = 0
KBI1 210941Z 17007KT 08/M02 A2986 RMK A01 T00791021  RH  049%=      5-min Rain = 0
KBI1 210942Z 18005KT 08/M02 A2986 RMK A01 T00791021  RH  049%=      5-min Rain = 0
KBI1 210943Z 17006KT 08/M02 A2986 RMK A01 T00791021  RH  049%=      5-min Rain = 0
KBI1 210944Z 17007KT 08/M02 A2986 RMK A01 T00791021  RH  049%=      5-min Rain = 0
KBI1 210945Z 17006KT 08/M02 A2986 RMK A01 T00791021  RH  049%=      5-min Rain = 0
KBI1 210946Z 17005KT 08/M02 A2986 RMK A01 T00791021  RH  049%=      5-min Rain = 0
KBI1 210947Z 17005KT 08/M02 A2986 RMK A01 T00801021  RH  049%=      5-min Rain = 0
KBI1 210948Z 17005KT 08/M02 A2986 RMK A01 T00791021  RH  049%=      5-min Rain = 0
KBI1 210949Z 17007KT 08/M02 A2986 RMK A01 T00791021  RH  049%=      5-min Rain = 0
KBI1 210950Z 16006KT 08/M02 A2985 RMK A01 T00791021  RH  049%=      5-min Rain = 0
KBI1 210951Z 16005KT 08/M02 A2985 RMK A01 T00791021  RH  049%=      5-min Rain = 0
KBI1 210952Z 16006KT 08/M02 A2986 RMK A01 T00791021  RH  049%=      5-min Rain = 0
KBI1 210953Z 16006KT 08/M02 A2986 RMK A01 T00801021  RH  049%=      5-min Rain = 0
KBI1 210954Z 16006KT 08/M02 A2986 RMK A01 T00801021  RH  049%=      5-min Rain = 0
KBI1 210955Z 16005KT 08/M02 A2986 RMK A01 T00801022  RH  049%=      5-min Rain = 0
KBI1 210956Z 16006KT 08/M02 A2986 RMK A01 T00801022  RH  049%=      5-min Rain = 0
KBI1 210957Z 17007KT 08/M02 A2986 RMK A01 T00811021  RH  049%=      5-min Rain = 0
KBI1 210958Z 16006KT 08/M02 A2986 RMK A01 T00801021  RH  049%=      5-min Rain = 0
KBI1 210959Z 16005KT 08/M02 A2986 RMK A01 T00811021  RH  049%=      5-min Rain = 0
KBI1 211000Z 17006KT 08/M02 A2985 RMK A01 T00811021  RH  049%=      5-min Rain = 0
KBI1 211001Z 16006KT 08/M02 A2985 RMK A01 T00801021  RH  049%=      5-min Rain = 0
KBI1 211002Z 16006KT 08/M02 A2985 RMK A01 T00801021  RH  049%=      5-min Rain = 0
KBI1 211003Z 16006KT 08/M02 A2985 RMK A01 T00801021  RH  049%=      5-min Rain = 0
KBI1 211004Z 16005KT 08/M02 A2985 RMK A01 T00801021  RH  049%=      5-min Rain = 0
KBI1 211005Z 17006KT 08/M02 A2985 RMK A01 T00801021  RH  049%=      5-min Rain = 0
KBI1 211006Z 17005KT 08/M02 A2985 RMK A01 T00791021  RH  049%=      5-min Rain = 0
KBI1 211007Z 16005KT 08/M02 A2985 RMK A01 T00791020  RH  049%=      5-min Rain = 0
KBI1 211008Z 17006KT 08/M02 A2985 RMK A01 T00791020  RH  049%=      5-min Rain = 0
KBI1 211009Z 17006KT 08/M02 A2986 RMK A01 T00791021  RH  049%=      5-min Rain = 0
KBI1 211010Z 17006KT 08/M02 A2986 RMK A01 T00791020  RH  049%=      5-min Rain = 0
KBI1 211011Z 17006KT 08/M02 A2986 RMK A01 T00791021  RH  049%=      5-min Rain = 0
KBI1 211012Z 17004KT 08/M02 A2986 RMK A01 T00791021  RH  049%=      5-min Rain = 0
KBI1 211013Z 17005KT 08/M02 A2985 RMK A01 T00791020  RH  049%=      5-min Rain = 0
KBI1 211014Z 17005KT 08/M02 A2985 RMK A01 T00791020  RH  049%=      5-min Rain = 0
KBI1 211015Z 16004KT 08/M02 A2985 RMK A01 T00791020  RH  049%=      5-min Rain = 0
KBI1 211016Z 17005KT 08/M02 A2985 RMK A01 T00791020  RH  049%=      5-min Rain = 0
KBI1 211017Z 16003KT 08/M02 A2985 RMK A01 T00791020  RH  050%=      5-min Rain = 0
KBI1 211018Z 16005KT 08/M02 A2985 RMK A01 T00791020  RH  050%=      5-min Rain = 0
KBI1 211019Z 17004KT 08/M02 A2985 RMK A01 T00791020  RH  050%=      5-min Rain = 0
KBI1 211020Z 17006KT 08/M02 A2985 RMK A01 T00791020  RH  050%=      5-min Rain = 0
KBI1 211021Z 16005KT 08/M02 A2985 RMK A01 T00791020  RH  050%=      5-min Rain = 0
KBI1 211022Z 16006KT 08/M02 A2985 RMK A01 T00791020  RH  049%=      5-min Rain = 0
KBI1 211023Z 16004KT 08/M02 A2985 RMK A01 T00791020  RH  049%=      5-min Rain = 0
KBI1 211024Z 17004KT 08/M02 A2985 RMK A01 T00791020  RH  049%=      5-min Rain = 0
KBI1 211025Z 16005KT 08/M02 A2985 RMK A01 T00791020  RH  050%=      5-min Rain = 0
KBI1 211026Z 17004KT 08/M02 A2985 RMK A01 T00791020  RH  050%=      5-min Rain = 0
KBI1 211027Z 17004KT 08/M02 A2985 RMK A01 T00791019  RH  050%=      5-min Rain = 0
KBI1 211028Z 17004KT 08/M02 A2985 RMK A01 T00781020  RH  050%=      5-min Rain = 0
KBI1 211029Z 16004KT 08/M02 A2985 RMK A01 T00781020  RH  050%=      5-min Rain = 0
KBI1 211030Z 15005KT 08/M02 A2985 RMK A01 T00781020  RH  050%=      5-min Rain = 0
KBI1 211031Z 17004KT 08/M02 A2985 RMK A01 T00791020  RH  050%=      5-min Rain = 0
KBI1 211032Z 16005KT 08/M02 A2985 RMK A01 T00791019  RH  050%=      5-min Rain = 0
KBI1 211033Z 16005KT 08/M02 A2985 RMK A01 T00791020  RH  050%=      5-min Rain = 0
KBI1 211034Z 17006KT 08/M02 A2985 RMK A01 T00791020  RH  050%=      5-min Rain = 0
KBI1 211035Z 15005KT 08/M02 A2985 RMK A01 T00801020  RH  049%=      5-min Rain = 0
KBI1 211036Z 16006KT 08/M02 A2985 RMK A01 T00801020  RH  049%=      5-min Rain = 0
KBI1 211037Z 16004KT 08/M02 A2985 RMK A01 T00801020  RH  049%=      5-min Rain = 0
KBI1 211038Z 16005KT 08/M02 A2985 RMK A01 T00801020  RH  049%=      5-min Rain = 0
KBI1 211039Z 15005KT 08/M02 A2985 RMK A01 T00801020  RH  049%=      5-min Rain = 0
KBI1 211040Z 15005KT 08/M02 A2985 RMK A01 T00801020  RH  049%=      5-min Rain = 0
KBI1 211041Z 16006KT 08/M02 A2985 RMK A01 T00801020  RH  049%=      5-min Rain = 0
KBI1 211042Z 15007KT 08/M02 A2985 RMK A01 T00811020  RH  049%=      5-min Rain = 0
KBI1 211043Z 16005KT 08/M02 A2985 RMK A01 T00811020  RH  049%=      5-min Rain = 0
KBI1 211044Z 16006KT 08/M02 A2985 RMK A01 T00811020  RH  049%=      5-min Rain = 0
KBI1 211045Z 16005KT 08/M02 A2985 RMK A01 T00811020  RH  049%=      5-min Rain = 0
KBI1 211046Z 16004KT 08/M02 A2985 RMK A01 T00811020  RH  049%=      5-min Rain = 0
KBI1 211047Z 15005KT 08/M02 A2985 RMK A01 T00811021  RH  049%=      5-min Rain = 0
KBI1 211048Z 16005KT 08/M02 A2985 RMK A01 T00811020  RH  049%=      5-min Rain = 0
KBI1 211049Z 16007KT 08/M02 A2985 RMK A01 T00811020  RH  049%=      5-min Rain = 0
KBI1 211050Z 16007KT 08/M02 A2985 RMK A01 T00811020  RH  049%=      5-min Rain = 0
KBI1 211051Z 16005KT 08/M02 A2985 RMK A01 T00811020  RH  049%=      5-min Rain = 0
KBI1 211052Z 17005KT 08/M02 A2985 RMK A01 T00821020  RH  049%=      5-min Rain = 0
KBI1 211053Z 16006KT 08/M02 A2985 RMK A01 T00811020  RH  049%=      5-min Rain = 0
KBI1 211054Z 17007KT 08/M02 A2985 RMK A01 T00811020  RH  049%=      5-min Rain = 0
KBI1 211055Z 16007KT 08/M02 A2985 RMK A01 T00811020  RH  049%=      5-min Rain = 0
KBI1 211056Z 16005KT 08/M02 A2985 RMK A01 T00811020  RH  049%=      5-min Rain = 0
KBI1 211057Z 17008KT 08/M02 A2985 RMK A01 T00811020  RH  049%=      5-min Rain = 0
KBI1 211058Z 16007KT 08/M02 A2985 RMK A01 T00811020  RH  049%=      5-min Rain = 0
KBI1 211059Z 16008KT 08/M02 A2985 RMK A01 T00821019  RH  049%=      5-min Rain = 0
KBI1 211100Z 15006KT 08/M02 A2985 RMK A01 T00821019  RH  049%=      5-min Rain = 0
KBI1 211101Z 15005KT 08/M02 A2985 RMK A01 T00821019  RH  049%=      5-min Rain = 0
KBI1 211102Z 15007KT 08/M02 A2985 RMK A01 T00831019  RH  049%=      5-min Rain = 0
KBI1 211103Z 14007KT 08/M02 A2985 RMK A01 T00831019  RH  049%=      5-min Rain = 0
KBI1 211104Z 15006KT 08/M02 A2984 RMK A01 T00831018  RH  049%=      5-min Rain = 0
KBI1 211105Z 14006KT 08/M02 A2984 RMK A01 T00831018  RH  049%=      5-min Rain = 0
KBI1 211106Z 15008KT 08/M02 A2984 RMK A01 T00831018  RH  049%=      5-min Rain = 0
KBI1 211107Z 15006KT 08/M02 A2984 RMK A01 T00821018  RH  049%=      5-min Rain = 0
KBI1 211108Z 14007KT 08/M02 A2984 RMK A01 T00821018  RH  049%=      5-min Rain = 0
KBI1 211109Z 15008KT 08/M02 A2984 RMK A01 T00821017  RH  050%=      5-min Rain = 0
KBI1 211110Z 15010KT 08/M02 A2984 RMK A01 T00821018  RH  049%=      5-min Rain = 0
KBI1 211111Z 16007KT 08/M02 A2984 RMK A01 T00821017  RH  049%=      5-min Rain = 0
KBI1 211112Z 16008KT 08/M02 A2985 RMK A01 T00821017  RH  050%=      5-min Rain = 0
KBI1 211113Z 16006KT 08/M02 A2985 RMK A01 T00821017  RH  050%=      5-min Rain = 0
KBI1 211114Z 16008KT 08/M02 A2985 RMK A01 T00811016  RH  050%=      5-min Rain = 0
KBI1 211115Z 16008KT 08/M02 A2985 RMK A01 T00811016  RH  050%=      5-min Rain = 0
KBI1 211116Z 16007KT 08/M02 A2985 RMK A01 T00821016  RH  050%=      5-min Rain = 0
KBI1 211117Z 16006G11KT 08/M02 A2985 RMK A01 T00811016  RH  050%=      5-min Rain = 0
KBI1 211118Z 17008KT 08/M02 A2985 RMK A01 T00811016  RH  050%=      5-min Rain = 0
KBI1 211119Z 16007KT 08/M02 A2985 RMK A01 T00811016  RH  051%=      5-min Rain = 0
KBI1 211120Z 16007KT 08/M02 A2985 RMK A01 T00811016  RH  051%=      5-min Rain = 0
KBI1 211121Z 16007KT 08/M02 A2985 RMK A01 T00801015  RH  051%=      5-min Rain = 0
KBI1 211122Z 16010KT 08/M02 A2985 RMK A01 T00801015  RH  051%=      5-min Rain = 0
KBI1 211123Z 17009KT 08/M02 A2984 RMK A01 T00801015  RH  051%=      5-min Rain = 0
KBI1 211124Z 16007KT 08/M02 A2985 RMK A01 T00801015  RH  051%=      5-min Rain = 0
KBI1 211125Z 16008KT 08/M02 A2984 RMK A01 T00801015  RH  051%=      5-min Rain = 0
KBI1 211126Z 16009KT 08/M01 A2984 RMK A01 T00801014  RH  051%=      5-min Rain = 0
KBI1 211127Z 16009KT 08/M01 A2984 RMK A01 T00801014  RH  051%=      5-min Rain = 0
KBI1 211128Z 16010KT 08/M01 A2984 RMK A01 T00801014  RH  052%=      5-min Rain = 0
KBI1 211129Z 15008KT 08/M01 A2984 RMK A01 T00801014  RH  052%=      5-min Rain = 0
KBI1 211130Z 15009G14KT 08/M01 A2984 RMK A01 T00801014  RH  052%=      5-min Rain = 0
KBI1 211131Z 16009KT 08/M01 A2984 RMK A01 T00801014  RH  052%=      5-min Rain = 0
KBI1 211132Z 15007KT 08/M01 A2984 RMK A01 T00801013  RH  052%=      5-min Rain = 0
KBI1 211133Z 15008G13KT 08/M01 A2984 RMK A01 T00791013  RH  052%=      5-min Rain = 0
KBI1 211134Z 15009KT 08/M01 A2984 RMK A01 T00791013  RH  052%=      5-min Rain = 0
KBI1 211135Z 15009KT 08/M01 A2984 RMK A01 T00791013  RH  052%=      5-min Rain = 0
KBI1 211136Z 15009KT 08/M01 A2984 RMK A01 T00791013  RH  052%=      5-min Rain = 0
KBI1 211137Z 15008KT 08/M01 A2984 RMK A01 T00791013  RH  052%=      5-min Rain = 0
KBI1 211138Z 15010KT 08/M01 A2984 RMK A01 T00791013  RH  052%=      5-min Rain = 0
KBI1 211139Z 14011G16KT 08/M01 A2984 RMK A01 T00791013  RH  052%=      5-min Rain = 0
KBI1 211140Z 15010G15KT 08/M01 A2984 RMK A01 T00791013  RH  052%=      5-min Rain = 0
KBI1 211141Z 15009G14KT 08/M01 A2984 RMK A01 T00791012  RH  052%=      5-min Rain = 0
KBI1 211142Z 15010KT 08/M01 A2984 RMK A01 T00791012  RH  052%=      5-min Rain = 0
KBI1 211143Z 15008KT 08/M01 A2984 RMK A01 T00791012  RH  052%=      5-min Rain = 0
KBI1 211144Z 15010KT 08/M01 A2984 RMK A01 T00791012  RH  053%=      5-min Rain = 0
KBI1 211145Z 15010KT 08/M01 A2984 RMK A01 T00791012  RH  053%=      5-min Rain = 0
KBI1 211146Z 15009KT 08/M01 A2984 RMK A01 T00791012  RH  053%=      5-min Rain = 0
KBI1 211147Z 15011KT 08/M01 A2984 RMK A01 T00791012  RH  053%=      5-min Rain = 0
KBI1 211148Z 16008KT 08/M01 A2984 RMK A01 T00791012  RH  053%=      5-min Rain = 0
KBI1 211149Z 14008KT 08/M01 A2984 RMK A01 T00791011  RH  053%=      5-min Rain = 0
KBI1 211150Z 15008KT 08/M01 A2984 RMK A01 T00781011  RH  053%=      5-min Rain = 0
KBI1 211151Z 15010KT 08/M01 A2984 RMK A01 T00781011  RH  053%=      5-min Rain = 0
KBI1 211152Z 15007KT 08/M01 A2984 RMK A01 T00781011  RH  053%=      5-min Rain = 0
KBI1 211153Z 15009KT 08/M01 A2984 RMK A01 T00781011  RH  053%=      5-min Rain = 0
KBI1 211154Z 15011KT 08/M01 A2984 RMK A01 T00781011  RH  053%=      5-min Rain = 0
KBI1 211155Z 15009KT 08/M01 A2984 RMK A01 T00781011  RH  054%=      5-min Rain = 0
KBI1 211156Z 16008KT 08/M01 A2984 RMK A01 T00781010  RH  054%=      5-min Rain = 0
KBI1 211157Z 15010G15KT 08/M01 A2984 RMK A01 T00771010  RH  054%=      5-min Rain = 0
KBI1 211158Z 15011KT 08/M01 A2984 RMK A01 T00771010  RH  054%=      5-min Rain = 0
KBI1 211159Z 15009KT 08/M01 A2984 RMK A01 T00771010  RH  054%=      5-min Rain = 0
KBI1 211200Z 15008KT 08/M01 A2984 RMK A01 T00771010  RH  054%=      5-min Rain = 0
KBI1 211201Z 15009KT 08/M01 A2984 RMK A01 T00771010  RH  054%=      5-min Rain = 0
KBI1 211202Z 15008KT 08/M01 A2984 RMK A01 T00771010  RH  054%=      5-min Rain = 0
KBI1 211203Z 15009KT 08/M01 A2984 RMK A01 T00771010  RH  054%=      5-min Rain = 0
KBI1 211204Z 15008KT 08/M01 A2983 RMK A01 T00771010  RH  054%=      5-min Rain = 0
KBI1 211205Z 16010G15KT 08/M01 A2984 RMK A01 T00761010  RH  054%=      5-min Rain = 0
KBI1 211206Z 14007KT 08/M01 A2983 RMK A01 T00761010  RH  054%=      5-min Rain = 0
KBI1 211207Z 15008KT 08/M01 A2983 RMK A01 T00761010  RH  054%=      5-min Rain = 0
KBI1 211208Z 14008KT 08/M01 A2983 RMK A01 T00761010  RH  055%=      5-min Rain = 0
KBI1 211209Z 14008KT 08/M01 A2983 RMK A01 T00761010  RH  055%=      5-min Rain = 0
KBI1 211210Z 14007KT 08/M01 A2983 RMK A01 T00751010  RH  055%=      5-min Rain = 0
KBI1 211211Z 14009KT 08/M01 A2983 RMK A01 T00751010  RH  055%=      5-min Rain = 0
KBI1 211212Z 15007KT 08/M01 A2984 RMK A01 T00751010  RH  055%=      5-min Rain = 0
KBI1 211213Z 15009KT 08/M01 A2984 RMK A01 T00751010  RH  055%=      5-min Rain = 0
KBI1 211214Z 15011KT 08/M01 A2984 RMK A01 T00751010  RH  055%=      5-min Rain = 0
KBI1 211215Z 16010KT 08/M01 A2984 RMK A01 T00761010  RH  055%=      5-min Rain = 0
KBI1 211216Z 16009KT 08/M01 A2984 RMK A01 T00751010  RH  055%=      5-min Rain = 0
KBI1 211217Z 15008KT 08/M01 A2984 RMK A01 T00761010  RH  055%=      5-min Rain = 0
KBI1 211218Z 15008KT 08/M01 A2984 RMK A01 T00751010  RH  055%=      5-min Rain = 0
KBI1 211219Z 16008KT 08/M01 A2984 RMK A01 T00751009  RH  055%=      5-min Rain = 0
KBI1 211220Z 16009KT 08/M01 A2984 RMK A01 T00751010  RH  055%=      5-min Rain = 0
KBI1 211221Z 15010KT 08/M01 A2984 RMK A01 T00751010  RH  055%=      5-min Rain = 0
KBI1 211222Z 16010KT 08/M01 A2984 RMK A01 T00751010  RH  055%=      5-min Rain = 0
KBI1 211223Z 16011KT 08/M01 A2984 RMK A01 T00751010  RH  055%=      5-min Rain = 0
KBI1 211224Z 15010KT 08/M01 A2984 RMK A01 T00751010  RH  055%=      5-min Rain = 0
KBI1 211225Z 15009KT 08/M01 A2984 RMK A01 T00751010  RH  055%=      5-min Rain = 0
KBI1 211226Z 16008G13KT 08/M01 A2984 RMK A01 T00751010  RH  055%=      5-min Rain = 0
KBI1 211227Z 16008KT 08/M01 A2984 RMK A01 T00751010  RH  055%=      5-min Rain = 0
KBI1 211228Z 16007KT 07/M01 A2984 RMK A01 T00741010  RH  055%=      5-min Rain = 0
KBI1 211229Z 16008KT 07/M01 A2984 RMK A01 T00741010  RH  055%=      5-min Rain = 0
KBI1 211230Z 16010KT 07/M01 A2984 RMK A01 T00741009  RH  055%=      5-min Rain = 0
KBI1 211231Z 16009KT 07/M01 A2984 RMK A01 T00741009  RH  055%=      5-min Rain = 0
KBI1 211232Z 16009KT 07/M01 A2984 RMK A01 T00741009  RH  055%=      5-min Rain = 0
KBI1 211233Z 16012KT 07/M01 A2984 RMK A01 T00741009  RH  055%=      5-min Rain = 0
KBI1 211234Z 16010KT 07/M01 A2984 RMK A01 T00741010  RH  055%=      5-min Rain = 0
KBI1 211235Z 16011KT 07/M01 A2984 RMK A01 T00741009  RH  055%=      5-min Rain = 0
KBI1 211236Z 16010KT 07/M01 A2984 RMK A01 T00741009  RH  056%=      5-min Rain = 0
KBI1 211237Z 16009KT 07/M01 A2984 RMK A01 T00741009  RH  056%=      5-min Rain = 0
KBI1 211238Z 15009KT 07/M01 A2984 RMK A01 T00741009  RH  056%=      5-min Rain = 0
KBI1 211239Z 15010KT 07/M01 A2984 RMK A01 T00741009  RH  056%=      5-min Rain = 0
KBI1 211240Z 15008KT 07/M01 A2984 RMK A01 T00741009  RH  056%=      5-min Rain = 0
KBI1 211241Z 17007KT 07/M01 A2984 RMK A01 T00741008  RH  056%=      5-min Rain = 0
KBI1 211242Z 16009KT 07/M01 A2984 RMK A01 T00731008  RH  056%=      5-min Rain = 0
KBI1 211243Z 16010KT 07/M01 A2984 RMK A01 T00731008  RH  056%=      5-min Rain = 0
KBI1 211244Z 16010KT 07/M01 A2984 RMK A01 T00741008  RH  056%=      5-min Rain = 0
KBI1 211245Z 16009KT 07/M01 A2984 RMK A01 T00741008  RH  056%=      5-min Rain = 0
KBI1 211246Z 16010KT 07/M01 A2984 RMK A01 T00741008  RH  056%=      5-min Rain = 0
KBI1 211247Z 17009KT 08/M01 A2984 RMK A01 T00751007  RH  056%=      5-min Rain = 0
KBI1 211248Z 16009KT 07/M01 A2984 RMK A01 T00741008  RH  056%=      5-min Rain = 0
KBI1 211249Z 17008KT 07/M01 A2985 RMK A01 T00741007  RH  056%=      5-min Rain = 0
KBI1 211250Z 17010KT 07/M01 A2984 RMK A01 T00741007  RH  056%=      5-min Rain = 0
KBI1 211251Z 16008KT 07/M01 A2984 RMK A01 T00731008  RH  056%=      5-min Rain = 0
KBI1 211252Z 17008KT 07/M01 A2984 RMK A01 T00731008  RH  056%=      5-min Rain = 0
KBI1 211253Z 16007KT 07/M01 A2984 RMK A01 T00731008  RH  057%=      5-min Rain = 0
KBI1 211254Z 17010KT 07/M01 A2984 RMK A01 T00731007  RH  057%=      5-min Rain = 0
KBI1 211255Z 16008KT 07/M01 A2984 RMK A01 T00731007  RH  057%=      5-min Rain = 0
KBI1 211256Z 16008KT 07/M01 A2984 RMK A01 T00731007  RH  057%=      5-min Rain = 0
KBI1 211257Z 16009KT 07/M01 A2984 RMK A01 T00731007  RH  057%=      5-min Rain = 0
KBI1 211258Z 15008KT 07/M01 A2984 RMK A01 T00731007  RH  057%=      5-min Rain = 0
KBI1 211259Z 16009KT 07/M01 A2984 RMK A01 T00731007  RH  057%=      5-min Rain = 0
KBI1 211300Z 16007KT 07/M01 A2984 RMK A01 T00731007  RH  057%=      5-min Rain = 0
KBI1 211301Z 16008KT 07/M01 A2984 RMK A01 T00731007  RH  057%=      5-min Rain = 0
KBI1 211302Z 16009KT 07/M01 A2984 RMK A01 T00731007  RH  057%=      5-min Rain = 0
KBI1 211303Z 15008KT 07/M01 A2984 RMK A01 T00731006  RH  057%=      5-min Rain = 0
KBI1 211304Z 16009KT 07/M01 A2984 RMK A01 T00731006  RH  057%=      5-min Rain = 0
KBI1 211305Z 16009KT 07/M01 A2984 RMK A01 T00731006  RH  057%=      5-min Rain = 0
KBI1 211306Z 16008KT 07/M01 A2984 RMK A01 T00731006  RH  057%=      5-min Rain = 0
KBI1 211307Z 16010KT 07/M01 A2984 RMK A01 T00731006  RH  057%=      5-min Rain = 0
KBI1 211308Z 16009KT 07/M01 A2984 RMK A01 T00731006  RH  057%=      5-min Rain = 0
KBI1 211309Z 16008KT 07/M01 A2984 RMK A01 T00741006  RH  057%=      5-min Rain = 0
KBI1 211310Z 16010KT 07/M01 A2984 RMK A01 T00741006  RH  057%=      5-min Rain = 0
KBI1 211311Z 16011KT 07/M01 A2984 RMK A01 T00741006  RH  057%=      5-min Rain = 0
KBI1 211312Z 16010KT 07/M01 A2984 RMK A01 T00741006  RH  057%=      5-min Rain = 0
KBI1 211313Z 16010KT 07/M01 A2984 RMK A01 T00741006  RH  057%=      5-min Rain = 0
KBI1 211314Z 16010KT 07/M01 A2985 RMK A01 T00741006  RH  057%=      5-min Rain = 0
KBI1 211315Z 16010KT 07/M01 A2985 RMK A01 T00741005  RH  057%=      5-min Rain = 0
KBI1 211316Z 16011KT 07/M01 A2985 RMK A01 T00741005  RH  057%=      5-min Rain = 0
KBI1 211317Z 16009KT 07/M01 A2985 RMK A01 T00741006  RH  057%=      5-min Rain = 0
KBI1 211318Z 16009KT 07/M01 A2985 RMK A01 T00741006  RH  057%=      5-min Rain = 0
KBI1 211319Z 16010KT 07/M01 A2985 RMK A01 T00731005  RH  057%=      5-min Rain = 0
KBI1 211320Z 16009KT 07/M01 A2985 RMK A01 T00731005  RH  057%=      5-min Rain = 0
KBI1 211321Z 16010KT 07/M01 A2985 RMK A01 T00731005  RH  057%=      5-min Rain = 0
KBI1 211322Z 16010KT 07/M01 A2985 RMK A01 T00731005  RH  057%=      5-min Rain = 0
KBI1 211323Z 16010KT 07/M01 A2985 RMK A01 T00731005  RH  057%=      5-min Rain = 0
KBI1 211324Z 15008KT 07/M01 A2985 RMK A01 T00731005  RH  058%=      5-min Rain = 0
KBI1 211325Z 16009KT 07/M01 A2985 RMK A01 T00731005  RH  058%=      5-min Rain = 0
KBI1 211326Z 16010KT 07/M01 A2985 RMK A01 T00731005  RH  058%=      5-min Rain = 0
KBI1 211327Z 16010KT 07/M01 A2985 RMK A01 T00731005  RH  058%=      5-min Rain = 0
KBI1 211328Z 15009KT 07/M01 A2985 RMK A01 T00731005  RH  058%=      5-min Rain = 0
KBI1 211329Z 16009KT 07/M01 A2985 RMK A01 T00731005  RH  058%=      5-min Rain = 0
KBI1 211330Z 16012G17KT 07/M01 A2985 RMK A01 T00721005  RH  058%=      5-min Rain = 0
KBI1 211331Z 15009G15KT 07/M01 A2985 RMK A01 T00721005  RH  058%=      5-min Rain = 0
KBI1 211332Z 15009KT 07/M01 A2985 RMK A01 T00721005  RH  058%=      5-min Rain = 0
KBI1 211333Z 15010G15KT 07/M01 A2985 RMK A01 T00721005  RH  058%=      5-min Rain = 0
KBI1 211334Z 15010KT 07/M01 A2984 RMK A01 T00721005  RH  058%=      5-min Rain = 0
KBI1 211335Z 16009KT 07/M01 A2984 RMK A01 T00731005  RH  058%=      5-min Rain = 0
KBI1 211336Z 15009KT 07/M01 A2984 RMK A01 T00731005  RH  058%=      5-min Rain = 0
KBI1 211337Z 15010G15KT 07/M01 A2984 RMK A01 T00731005  RH  058%=      5-min Rain = 0
KBI1 211338Z 15008KT 07/M01 A2984 RMK A01 T00731005  RH  058%=      5-min Rain = 0
KBI1 211339Z 15009KT 07/M01 A2984 RMK A01 T00731005  RH  058%=      5-min Rain = 0
KBI1 211340Z 16013KT 07/M01 A2984 RMK A01 T00731005  RH  058%=      5-min Rain = 0
KBI1 211341Z 16010KT 07/M01 A2984 RMK A01 T00731005  RH  058%=      5-min Rain = 0
KBI1 211342Z 15010KT 07/M01 A2984 RMK A01 T00731005  RH  058%=      5-min Rain = 0
KBI1 211343Z 16010KT 07/M01 A2985 RMK A01 T00731005  RH  058%=      5-min Rain = 0
KBI1 211344Z 16010KT 07/M01 A2985 RMK A01 T00731005  RH  058%=      5-min Rain = 0
KBI1 211345Z 16012KT 07/M01 A2985 RMK A01 T00731005  RH  058%=      5-min Rain = 0
KBI1 211346Z 16012KT 07/M00 A2985 RMK A01 T00741004  RH  058%=      5-min Rain = 0
KBI1 211347Z 16012KT 07/M00 A2985 RMK A01 T00741004  RH  058%=      5-min Rain = 0
KBI1 211348Z 16011KT 07/M01 A2985 RMK A01 T00741005  RH  058%=      5-min Rain = 0
KBI1 211349Z 16011KT 07/M00 A2985 RMK A01 T00741004  RH  058%=      5-min Rain = 0
KBI1 211350Z 15010KT 07/M00 A2984 RMK A01 T00741004  RH  058%=      5-min Rain = 0
KBI1 211351Z 16010KT 07/M00 A2984 RMK A01 T00741004  RH  058%=      5-min Rain = 0
KBI1 211352Z 15009KT 07/M00 A2984 RMK A01 T00741004  RH  058%=      5-min Rain = 0
KBI1 211353Z 16011KT 07/M00 A2984 RMK A01 T00741004  RH  058%=      5-min Rain = 0
KBI1 211354Z 16013G18KT 07/M00 A2984 RMK A01 T00741004  RH  058%=      5-min Rain = 0
KBI1 211355Z 15010G17KT 08/M00 A2984 RMK A01 T00751004  RH  057%=      5-min Rain = 0
KBI1 211356Z 15011KT 08/M00 A2984 RMK A01 T00751004  RH  057%=      5-min Rain = 0
KBI1 211357Z 15012KT 08/M00 A2984 RMK A01 T00751004  RH  057%=      5-min Rain = 0
KBI1 211358Z 15011KT 07/M00 A2984 RMK A01 T00741004  RH  057%=      5-min Rain = 0
KBI1 211359Z 15010KT 07/M00 A2984 RMK A01 T00741004  RH  057%=      5-min Rain = 0
KBI1 211400Z 15014KT 08/M00 A2984 RMK A01 T00751004  RH  057%=      5-min Rain = 0
KBI1 211401Z 16013KT 08/M00 A2984 RMK A01 T00751004  RH  057%=      5-min Rain = 0
KBI1 211402Z 15011KT 08/M00 A2984 RMK A01 T00751004  RH  057%=      5-min Rain = 0
KBI1 211403Z 15013KT 08/M00 A2984 RMK A01 T00751004  RH  057%=      5-min Rain = 0
KBI1 211404Z 15012KT 08/M00 A2984 RMK A01 T00751003  RH  057%=      5-min Rain = 0
KBI1 211405Z 15014KT 08/M00 A2984 RMK A01 T00761003  RH  057%=      5-min Rain = 0
KBI1 211406Z 15011KT 08/M00 A2984 RMK A01 T00761004  RH  057%=      5-min Rain = 0
KBI1 211407Z 15011KT 08/M00 A2984 RMK A01 T00761003  RH  057%=      5-min Rain = 0
KBI1 211408Z 15011KT 08/M00 A2984 RMK A01 T00761003  RH  057%=      5-min Rain = 0
KBI1 211409Z 15013KT 08/M00 A2984 RMK A01 T00761003  RH  057%=      5-min Rain = 0
KBI1 211410Z 15013KT 08/M00 A2984 RMK A01 T00761003  RH  057%=      5-min Rain = 0
KBI1 211411Z 15013KT 08/M00 A2984 RMK A01 T00761003  RH  057%=      5-min Rain = 0
KBI1 211412Z 15012G18KT 08/M00 A2984 RMK A01 T00761003  RH  057%=      5-min Rain = 0
KBI1 211413Z 16013G18KT 08/M00 A2984 RMK A01 T00761003  RH  057%=      5-min Rain = 0
KBI1 211414Z 15012KT 08/M00 A2985 RMK A01 T00761003  RH  057%=      5-min Rain = 0
KBI1 211415Z 16013KT 08/M00 A2984 RMK A01 T00761003  RH  057%=      5-min Rain = 0
KBI1 211416Z 16012KT 08/M00 A2984 RMK A01 T00761003  RH  057%=      5-min Rain = 0
KBI1 211417Z 15014G19KT 08/M00 A2984 RMK A01 T00761003  RH  057%=      5-min Rain = 0
KBI1 211418Z 15013G18KT 08/M00 A2984 RMK A01 T00761003  RH  057%=      5-min Rain = 0
KBI1 211419Z 15012KT 08/M00 A2984 RMK A01 T00761004  RH  057%=      5-min Rain = 0
KBI1 211420Z 16014G19KT 08/M00 A2984 RMK A01 T00761003  RH  057%=      5-min Rain = 0
KBI1 211421Z 16014KT 08/M00 A2985 RMK A01 T00761004  RH  057%=      5-min Rain = 0
KBI1 211422Z 16014KT 08/M00 A2985 RMK A01 T00761003  RH  057%=      5-min Rain = 0
KBI1 211423Z 14011KT 08/M00 A2985 RMK A01 T00761003  RH  057%=      5-min Rain = 0
KBI1 211424Z 15012G17KT 08/M00 A2985 RMK A01 T00761003  RH  057%=      5-min Rain = 0
KBI1 211425Z 15013KT 08/M00 A2985 RMK A01 T00761003  RH  057%=      5-min Rain = 0
KBI1 211426Z 15011KT 08/M00 A2985 RMK A01 T00761003  RH  057%=      5-min Rain = 0
KBI1 211427Z 15011KT 08/M00 A2985 RMK A01 T00761002  RH  057%=      5-min Rain = 0
KBI1 211428Z 16011KT 08/M00 A2985 RMK A01 T00761002  RH  057%=      5-min Rain = 0
KBI1 211429Z 15010KT 08/M00 A2985 RMK A01 T00761003  RH  057%=      5-min Rain = 0
KBI1 211430Z 15011G16KT 08/M00 A2985 RMK A01 T00761002  RH  058%=      5-min Rain = 0
KBI1 211431Z 16010KT 08/M00 A2985 RMK A01 T00761003  RH  057%=      5-min Rain = 0
KBI1 211432Z 17011KT 08/M00 A2985 RMK A01 T00761003  RH  058%=      5-min Rain = 0
KBI1 211433Z 16012KT 08/M00 A2986 RMK A01 T00761002  RH  058%=      5-min Rain = 0
KBI1 211434Z 16011KT 08/M00 A2985 RMK A01 T00761002  RH  058%=      5-min Rain = 0
KBI1 211435Z 16010KT 08/M00 A2985 RMK A01 T00761002  RH  058%=      5-min Rain = 0
KBI1 211436Z 16011KT 08/M00 A2985 RMK A01 T00761002  RH  058%=      5-min Rain = 0
KBI1 211437Z 17013KT 08/M00 A2986 RMK A01 T00761002  RH  058%=      5-min Rain = 0
KBI1 211438Z 17009KT 08/M00 A2986 RMK A01 T00761002  RH  058%=      5-min Rain = 0
KBI1 211439Z 18010KT 08/M00 A2986 RMK A01 T00761001  RH  058%=      5-min Rain = 0
KBI1 211440Z 18010KT 08/M00 A2987 RMK A01 T00761001  RH  058%=      5-min Rain = 0
KBI1 211441Z 18011KT 08/M00 A2986 RMK A01 T00761001  RH  058%=      5-min Rain = 0
KBI1 211442Z 18010KT 08/M00 A2986 RMK A01 T00761002  RH  058%=      5-min Rain = 0
KBI1 211443Z 18012KT 08/M00 A2987 RMK A01 T00761001  RH  058%=      5-min Rain = 0
KBI1 211444Z 17012KT 08/M00 A2987 RMK A01 T00761001  RH  058%=      5-min Rain = 0
KBI1 211445Z 18012KT 08/M00 A2987 RMK A01 T00761001  RH  058%=      5-min Rain = 0
KBI1 211446Z 18012KT 08/M00 A2987 RMK A01 T00771001  RH  058%=      5-min Rain = 0
KBI1 211447Z 17010KT 08/00 A2987 RMK A01 T007600-0  RH  058%=      5-min Rain = 0
KBI1 211448Z 17013KT 08/00 A2987 RMK A01 T007600-0  RH  058%=      5-min Rain = 0
KBI1 211449Z 17014KT 08/M00 A2987 RMK A01 T00761001  RH  058%=      5-min Rain = 0
KBI1 211450Z 16012KT 08/M00 A2987 RMK A01 T00761001  RH  058%=      5-min Rain = 0
KBI1 211451Z 16015KT 08/M00 A2986 RMK A01 T00761001  RH  058%=      5-min Rain = 0
KBI1 211452Z 16012G17KT 08/M00 A2986 RMK A01 T00761001  RH  058%=      5-min Rain = 0
KBI1 211453Z 15013KT 08/00 A2986 RMK A01 T007600-0  RH  058%=      5-min Rain = 0
KBI1 211454Z 16012KT 08/M00 A2986 RMK A01 T00761001  RH  058%=      5-min Rain = 0
KBI1 211455Z 15014KT 08/M00 A2986 RMK A01 T00771001  RH  058%=      5-min Rain = 0
KBI1 211456Z 16014KT 08/00 A2985 RMK A01 T007700-0  RH  058%=      5-min Rain = 0
KBI1 211457Z 15014KT 08/00 A2986 RMK A01 T007700-0  RH  058%=      5-min Rain = 0
KBI1 211458Z 15014KT 08/M00 A2986 RMK A01 T00771001  RH  058%=      5-min Rain = 0
KBI1 211459Z 15014G19KT 08/00 A2986 RMK A01 T007700-0  RH  058%=      5-min Rain = 0
KBI1 211500Z 15015KT 08/00 A2985 RMK A01 T007700-0  RH  058%=      5-min Rain = 0
KBI1 211501Z 15011KT 08/00 A2986 RMK A01 T00770000  RH  058%=      5-min Rain = 0
KBI1 211502Z 15012G18KT 08/00 A2985 RMK A01 T00770000  RH  058%=      5-min Rain = 0
KBI1 211503Z 15011G16KT 08/00 A2985 RMK A01 T00780000  RH  058%=      5-min Rain = 0
KBI1 211504Z 15010G16KT 08/00 A2985 RMK A01 T00780000  RH  058%=      5-min Rain = 0
KBI1 211505Z 15011G17KT 08/00 A2985 RMK A01 T007800-0  RH  058%=      5-min Rain = 0
KBI1 211506Z 15011KT 08/00 A2985 RMK A01 T00780001  RH  058%=      5-min Rain = 0
KBI1 211507Z 15012G17KT 08/00 A2986 RMK A01 T00780000  RH  058%=      5-min Rain = 0
KBI1 211508Z 15013KT 08/M00 A2986 RMK A01 T00781001  RH  058%=      5-min Rain = 0
KBI1 211509Z 16009KT 08/00 A2986 RMK A01 T007800-0  RH  058%=      5-min Rain = 0
KBI1 211510Z 15011KT 08/00 A2986 RMK A01 T00780000  RH  058%=      5-min Rain = 0
KBI1 211511Z 16012KT 08/00 A2986 RMK A01 T007800-0  RH  058%=      5-min Rain = 0
KBI1 211512Z 16011KT 08/00 A2987 RMK A01 T00780000  RH  058%=      5-min Rain = 0
KBI1 211513Z 17011KT 08/00 A2987 RMK A01 T00790000  RH  058%=      5-min Rain = 0
KBI1 211514Z 17011KT 08/00 A2987 RMK A01 T00790001  RH  058%=      5-min Rain = 0
KBI1 211515Z 16008KT 08/00 A2987 RMK A01 T00790001  RH  058%=      5-min Rain = 0
KBI1 211516Z 17010KT 08/00 A2987 RMK A01 T00790002  RH  058%=      5-min Rain = 0
KBI1 211517Z 16012KT 08/00 A2987 RMK A01 T00800001  RH  058%=      5-min Rain = 0
KBI1 211518Z 16010KT 08/00 A2987 RMK A01 T00800001  RH  057%=      5-min Rain = 0
KBI1 211519Z 16010KT 08/00 A2987 RMK A01 T00800001  RH  057%=      5-min Rain = 0
KBI1 211520Z 16010KT 08/00 A2987 RMK A01 T00800001  RH  057%=      5-min Rain = 0
KBI1 211521Z 16010KT 08/00 A2988 RMK A01 T00810003  RH  058%=      5-min Rain = 0
KBI1 211522Z 17010KT 08/00 A2988 RMK A01 T00810002  RH  057%=      5-min Rain = 0
KBI1 211523Z 17012KT 08/00 A2988 RMK A01 T00810002  RH  057%=      5-min Rain = 0
KBI1 211524Z 17012KT 08/00 A2988 RMK A01 T00820002  RH  057%=      5-min Rain = 0
KBI1 211525Z 17012KT 08/00 A2988 RMK A01 T00820002  RH  057%=      5-min Rain = 0
KBI1 211526Z 17011KT 08/00 A2988 RMK A01 T00810002  RH  057%=      5-min Rain = 0
KBI1 211527Z 17012G17KT 08/00 A2988 RMK A01 T00810002  RH  057%=      5-min Rain = 0
KBI1 211528Z 17012KT 08/00 A2989 RMK A01 T00820002  RH  057%=      5-min Rain = 0
KBI1 211529Z 18011KT 08/00 A2989 RMK A01 T00810003  RH  058%=      5-min Rain = 0
KBI1 211530Z 18012KT 08/00 A2989 RMK A01 T00810002  RH  057%=      5-min Rain = 0
KBI1 211531Z 18013KT 08/00 A2989 RMK A01 T00820003  RH  057%=      5-min Rain = 0
KBI1 211532Z 17011KT 08/00 A2989 RMK A01 T00820003  RH  057%=      5-min Rain = 0
KBI1 211533Z 17013KT 08/00 A2989 RMK A01 T00820003  RH  058%=      5-min Rain = 0
KBI1 211534Z 17013KT 08/00 A2989 RMK A01 T00820003  RH  058%=      5-min Rain = 0
KBI1 211535Z 17014KT 08/00 A2989 RMK A01 T00820003  RH  057%=      5-min Rain = 0
KBI1 211536Z 17011KT 08/00 A2989 RMK A01 T00830004  RH  057%=      5-min Rain = 0
KBI1 211537Z 17012G17KT 08/01 A2989 RMK A01 T00830005  RH  058%=      5-min Rain = 0
KBI1 211538Z 17013KT 08/00 A2989 RMK A01 T00840004  RH  057%=      5-min Rain = 0
KBI1 211539Z 16015KT 08/00 A2988 RMK A01 T00840004  RH  057%=      5-min Rain = 0
KBI1 211540Z 16012KT 08/00 A2988 RMK A01 T00840003  RH  057%=      5-min Rain = 0
KBI1 211541Z 16012KT 09/00 A2988 RMK A01 T00850004  RH  057%=      5-min Rain = 0
KBI1 211542Z 16014KT 09/00 A2988 RMK A01 T00850004  RH  057%=      5-min Rain = 0
KBI1 211543Z 16014KT 09/00 A2988 RMK A01 T00850004  RH  057%=      5-min Rain = 0
KBI1 211544Z 16014KT 09/00 A2988 RMK A01 T00860004  RH  057%=      5-min Rain = 0
KBI1 211545Z 16015KT 09/01 A2988 RMK A01 T00860005  RH  057%=      5-min Rain = 0
KBI1 211546Z 16016KT 09/00 A2988 RMK A01 T00860004  RH  056%=      5-min Rain = 0
KBI1 211547Z 16014KT 09/01 A2988 RMK A01 T00860005  RH  056%=      5-min Rain = 0
KBI1 211548Z 16015G20KT 09/00 A2987 RMK A01 T00860004  RH  056%=      5-min Rain = 0
KBI1 211549Z 16015G20KT 09/01 A2987 RMK A01 T00870005  RH  056%=      5-min Rain = 0
KBI1 211550Z 16016KT 09/00 A2987 RMK A01 T00870004  RH  056%=      5-min Rain = 0
KBI1 211551Z 15017G22KT 09/00 A2987 RMK A01 T00870004  RH  056%=      5-min Rain = 0
KBI1 211552Z 16017KT 09/00 A2987 RMK A01 T00870004  RH  056%=      5-min Rain = 0
KBI1 211553Z 16019G24KT 09/00 A2987 RMK A01 T00870003  RH  056%=      5-min Rain = 0
KBI1 211554Z 15018KT 09/00 A2987 RMK A01 T00870003  RH  056%=      5-min Rain = 0
KBI1 211555Z 16016KT 09/00 A2987 RMK A01 T00870003  RH  056%=      5-min Rain = 0
KBI1 211556Z 15016KT 09/00 A2987 RMK A01 T00870003  RH  056%=      5-min Rain = 0
KBI1 211557Z 15015G21KT 09/00 A2987 RMK A01 T00870004  RH  056%=      5-min Rain = 0
KBI1 211558Z 16014KT 09/00 A2987 RMK A01 T00870004  RH  056%=      5-min Rain = 0
KBI1 211559Z 16011KT 09/00 A2987 RMK A01 T00880004  RH  056%=      5-min Rain = 0
KBI1 211600Z 15015G21KT 09/01 A2987 RMK A01 T00880005  RH  056%=      5-min Rain = 0
KBI1 211601Z 16018KT 09/00 A2987 RMK A01 T00880004  RH  055%=      5-min Rain = 0
KBI1 211602Z 15014G20KT 09/00 A2987 RMK A01 T00890004  RH  055%=      5-min Rain = 0
KBI1 211603Z 15018G23KT 09/00 A2987 RMK A01 T00890004  RH  055%=      5-min Rain = 0
KBI1 211604Z 15015G21KT 09/00 A2987 RMK A01 T00900004  RH  055%=      5-min Rain = 0
KBI1 211605Z 16015G22KT 09/00 A2987 RMK A01 T00900004  RH  055%=      5-min Rain = 0
KBI1 211606Z 16013G18KT 09/01 A2987 RMK A01 T00900005  RH  055%=      5-min Rain = 0
KBI1 211607Z 16015KT 09/01 A2987 RMK A01 T00910005  RH  055%=      5-min Rain = 0
KBI1 211608Z 16015G21KT 09/01 A2987 RMK A01 T00910005  RH  055%=      5-min Rain = 0
KBI1 211609Z 16012KT 09/01 A2988 RMK A01 T00920007  RH  055%=      5-min Rain = 0
KBI1 211610Z 16013KT 09/01 A2987 RMK A01 T00920007  RH  055%=      5-min Rain = 0
KBI1 211611Z 15010G15KT 09/01 A2987 RMK A01 T00930007  RH  055%=      5-min Rain = 0
KBI1 211612Z 15012KT 09/01 A2987 RMK A01 T00930007  RH  055%=      5-min Rain = 0
KBI1 211613Z 15014KT 09/01 A2987 RMK A01 T00930006  RH  054%=      5-min Rain = 0
KBI1 211614Z 15014KT 09/01 A2987 RMK A01 T00940005  RH  054%=      5-min Rain = 0
KBI1 211615Z 16015KT 09/01 A2987 RMK A01 T00940005  RH  054%=      5-min Rain = 0
KBI1 211616Z 16012G17KT 09/01 A2987 RMK A01 T00940006  RH  054%=      5-min Rain = 0
KBI1 211617Z 15011KT 10/01 A2987 RMK A01 T00950007  RH  054%=      5-min Rain = 0
KBI1 211618Z 15012KT 10/01 A2986 RMK A01 T00950008  RH  054%=      5-min Rain = 0
KBI1 211619Z 15014G19KT 10/01 A2986 RMK A01 T00950008  RH  054%=      5-min Rain = 0
KBI1 211620Z 16013KT 10/01 A2987 RMK A01 T00960007  RH  054%=      5-min Rain = 0
KBI1 211621Z 16012G17KT 10/01 A2987 RMK A01 T00960008  RH  054%=      5-min Rain = 0
KBI1 211622Z 16013G18KT 10/01 A2987 RMK A01 T00960008  RH  054%=      5-min Rain = 0
KBI1 211623Z 15012KT 10/01 A2987 RMK A01 T00960008  RH  054%=      5-min Rain = 0
KBI1 211624Z 16014KT 10/01 A2987 RMK A01 T00970008  RH  054%=      5-min Rain = 0
KBI1 211625Z 16014KT 10/01 A2987 RMK A01 T00970007  RH  054%=      5-min Rain = 0
KBI1 211626Z 16015KT 10/01 A2987 RMK A01 T00970007  RH  054%=      5-min Rain = 0
KBI1 211627Z 16014KT 10/01 A2987 RMK A01 T00970007  RH  053%=      5-min Rain = 0
KBI1 211628Z 16014KT 10/01 A2988 RMK A01 T00970007  RH  053%=      5-min Rain = 0
KBI1 211629Z 15013KT 10/01 A2988 RMK A01 T00970008  RH  054%=      5-min Rain = 0
KBI1 211630Z 16011KT 10/01 A2988 RMK A01 T00980008  RH  054%=      5-min Rain = 0
KBI1 211631Z 16013KT 10/01 A2988 RMK A01 T00980009  RH  054%=      5-min Rain = 0
KBI1 211632Z 16011KT 10/01 A2988 RMK A01 T00980009  RH  054%=      5-min Rain = 0
KBI1 211633Z 17013KT 10/01 A2988 RMK A01 T00990009  RH  054%=      5-min Rain = 0
KBI1 211634Z 17013KT 10/01 A2988 RMK A01 T00990009  RH  054%=      5-min Rain = 0
KBI1 211635Z 16011KT 10/01 A2988 RMK A01 T00990009  RH  053%=      5-min Rain = 0
KBI1 211636Z 15011KT 10/01 A2988 RMK A01 T01000010  RH  053%=      5-min Rain = 0
KBI1 211637Z 15013KT 10/01 A2988 RMK A01 T01000010  RH  053%=      5-min Rain = 0
KBI1 211638Z 16014KT 10/01 A2988 RMK A01 T01000009  RH  053%=      5-min Rain = 0
KBI1 211639Z 16014KT 10/01 A2987 RMK A01 T01000009  RH  053%=      5-min Rain = 0
KBI1 211640Z 16015KT 10/01 A2987 RMK A01 T01000010  RH  053%=      5-min Rain = 0
KBI1 211641Z 16017KT 10/01 A2987 RMK A01 T01000008  RH  053%=      5-min Rain = 0
KBI1 211642Z 16014KT 10/01 A2987 RMK A01 T01000009  RH  053%=      5-min Rain = 0
KBI1 211643Z 15015G20KT 10/01 A2987 RMK A01 T01010011  RH  054%=      5-min Rain = 0
KBI1 211644Z 15017G22KT 10/01 A2987 RMK A01 T01010010  RH  053%=      5-min Rain = 0
KBI1 211645Z 16016KT 10/01 A2987 RMK A01 T01010008  RH  053%=      5-min Rain = 0
KBI1 211646Z 15014G19KT 10/01 A2987 RMK A01 T01000008  RH  053%=      5-min Rain = 0
KBI1 211647Z 16015KT 10/01 A2987 RMK A01 T01000010  RH  053%=      5-min Rain = 0
KBI1 211648Z 16013G18KT 10/01 A2987 RMK A01 T01010010  RH  053%=      5-min Rain = 0
KBI1 211649Z 15011G16KT 10/01 A2987 RMK A01 T01020010  RH  053%=      5-min Rain = 0
KBI1 211650Z 16014G20KT 10/01 A2986 RMK A01 T01020010  RH  053%=      5-min Rain = 0
KBI1 211651Z 16015KT 10/01 A2987 RMK A01 T01020010  RH  053%=      5-min Rain = 0
KBI1 211652Z 16013KT 10/01 A2987 RMK A01 T01020010  RH  053%=      5-min Rain = 0
KBI1 211653Z 15014KT 10/01 A2987 RMK A01 T01020010  RH  053%=      5-min Rain = 0
KBI1 211654Z 16016KT 10/01 A2987 RMK A01 T01020009  RH  053%=      5-min Rain = 0
KBI1 211655Z 15015KT 10/01 A2987 RMK A01 T01020010  RH  053%=      5-min Rain = 0
KBI1 211656Z 17014KT 10/01 A2987 RMK A01 T01020010  RH  053%=      5-min Rain = 0
KBI1 211657Z 16016G21KT 10/01 A2987 RMK A01 T01030010  RH  053%=      5-min Rain = 0
KBI1 211658Z 16016KT 10/01 A2987 RMK A01 T01030010  RH  053%=      5-min Rain = 0
KBI1 211659Z 16015KT 10/01 A2987 RMK A01 T01030010  RH  053%=      5-min Rain = 0
KBI1 211700Z 14012G18KT 10/01 A2986 RMK A01 T01030011  RH  053%=      5-min Rain = 0
KBI1 211701Z 15013G18KT 10/01 A2986 RMK A01 T01030011  RH  053%=      5-min Rain = 0
KBI1 211702Z 16013KT 10/01 A2986 RMK A01 T01030010  RH  053%=      5-min Rain = 0
KBI1 211703Z 16011KT 10/01 A2987 RMK A01 T01040012  RH  053%=      5-min Rain = 0
KBI1 211704Z 16011KT 11/01 A2988 RMK A01 T01050013  RH  053%=      5-min Rain = 0
KBI1 211705Z 17012KT 11/01 A2988 RMK A01 T01060013  RH  053%=      5-min Rain = 0
KBI1 211706Z 16011KT 11/01 A2988 RMK A01 T01060013  RH  052%=      5-min Rain = 0
KBI1 211707Z 16011G17KT 11/01 A2988 RMK A01 T01060013  RH  052%=      5-min Rain = 0
KBI1 211708Z 17010KT 11/01 A2988 RMK A01 T01070013  RH  052%=      5-min Rain = 0
KBI1 211709Z 17011KT 11/01 A2988 RMK A01 T01070014  RH  053%=      5-min Rain = 0
KBI1 211710Z 17011KT 11/01 A2988 RMK A01 T01080014  RH  052%=      5-min Rain = 0
KBI1 211711Z 17011KT 11/01 A2988 RMK A01 T01080014  RH  052%=      5-min Rain = 0
KBI1 211712Z 17014KT 11/01 A2988 RMK A01 T01080014  RH  052%=      5-min Rain = 0
KBI1 211713Z 18014KT 11/01 A2988 RMK A01 T01080013  RH  052%=      5-min Rain = 0
KBI1 211714Z 18011KT 11/01 A2989 RMK A01 T01080014  RH  052%=      5-min Rain = 0
KBI1 211715Z 18015KT 11/01 A299 RMK A01 T01080014  RH  052%=      5-min Rain = 0
KBI1 211716Z 17012KT 11/01 A299 RMK A01 T01090013  RH  052%=      5-min Rain = 0
KBI1 211717Z 17011KT 11/01 A2989 RMK A01 T01090013  RH  052%=      5-min Rain = 0
KBI1 211718Z 16013KT 11/01 A2989 RMK A01 T01090014  RH  052%=      5-min Rain = 0
KBI1 211719Z 17010KT 11/01 A299 RMK A01 T01090014  RH  052%=      5-min Rain = 0
KBI1 211720Z 17011KT 11/02 A299 RMK A01 T01100015  RH  052%=      5-min Rain = 0
KBI1 211721Z 18010KT 11/02 A299 RMK A01 T01110016  RH  052%=      5-min Rain = 0
KBI1 211722Z 17011KT 11/02 A299 RMK A01 T01120016  RH  052%=      5-min Rain = 0
KBI1 211723Z 17012KT 11/02 A299 RMK A01 T01130016  RH  051%=      5-min Rain = 0
KBI1 211724Z 17012KT 11/02 A299 RMK A01 T01130016  RH  051%=      5-min Rain = 0
KBI1 211725Z 17014KT 11/02 A299 RMK A01 T01130016  RH  051%=      5-min Rain = 0
KBI1 211726Z 17014KT 11/02 A299 RMK A01 T01130015  RH  051%=      5-min Rain = 0
KBI1 211727Z 16012KT 11/02 A299 RMK A01 T01130015  RH  051%=      5-min Rain = 0
KBI1 211728Z 17014KT 11/02 A2989 RMK A01 T01130016  RH  051%=      5-min Rain = 0
KBI1 211729Z 16012KT 11/02 A2989 RMK A01 T01130016  RH  051%=      5-min Rain = 0
KBI1 211730Z 17013KT 11/02 A2989 RMK A01 T01120015  RH  051%=      5-min Rain = 0
KBI1 211731Z 17012KT 11/02 A2989 RMK A01 T01130016  RH  051%=      5-min Rain = 0
KBI1 211732Z 17012KT 11/02 A2989 RMK A01 T01130016  RH  051%=      5-min Rain = 0
KBI1 211733Z 17014KT 11/02 A2989 RMK A01 T01140016  RH  051%=      5-min Rain = 0
KBI1 211734Z 17015KT 11/02 A2989 RMK A01 T01130016  RH  051%=      5-min Rain = 0
KBI1 211735Z 17016KT 11/02 A2989 RMK A01 T01140016  RH  051%=      5-min Rain = 0
KBI1 211736Z 17015KT 11/02 A2989 RMK A01 T01140016  RH  051%=      5-min Rain = 0
KBI1 211737Z 17016KT 12/02 A2989 RMK A01 T01150017  RH  051%=      5-min Rain = 0
KBI1 211738Z 16013G18KT 12/02 A2989 RMK A01 T01160017  RH  051%=      5-min Rain = 0
KBI1 211739Z 16015KT 12/02 A2988 RMK A01 T01160016  RH  050%=      5-min Rain = 0
KBI1 211740Z 15013KT 12/02 A2988 RMK A01 T01160017  RH  051%=      5-min Rain = 0
KBI1 211741Z 17012KT 12/02 A2988 RMK A01 T01160017  RH  051%=      5-min Rain = 0
KBI1 211742Z 16011KT 12/02 A2988 RMK A01 T01170019  RH  051%=      5-min Rain = 0
KBI1 211743Z 16010KT 12/02 A2988 RMK A01 T01170019  RH  051%=      5-min Rain = 0
KBI1 211744Z 17012KT 12/02 A2988 RMK A01 T01180019  RH  051%=      5-min Rain = 0
KBI1 211745Z 17010KT 12/02 A2988 RMK A01 T01180019  RH  051%=      5-min Rain = 0
KBI1 211746Z 16011KT 12/02 A2988 RMK A01 T01190019  RH  051%=      5-min Rain = 0
KBI1 211747Z 16010KT 12/02 A2988 RMK A01 T01190018  RH  050%=      5-min Rain = 0
KBI1 211748Z 16009KT 12/02 A2988 RMK A01 T01190021  RH  051%=      5-min Rain = 0
KBI1 211749Z 17009KT 12/02 A2988 RMK A01 T01210022  RH  051%=      5-min Rain = 0
KBI1 211750Z 16009G15KT 12/02 A2988 RMK A01 T01230021  RH  050%=      5-min Rain = 0
KBI1 211751Z 16011KT 12/02 A2988 RMK A01 T01220019  RH  049%=      5-min Rain = 0
KBI1 211752Z 17013KT 12/02 A2988 RMK A01 T01220020  RH  050%=      5-min Rain = 0
KBI1 211753Z 18015KT 12/02 A2988 RMK A01 T01210018  RH  049%=      5-min Rain = 0
KBI1 211754Z 18014KT 12/02 A2988 RMK A01 T01210018  RH  049%=      5-min Rain = 0
KBI1 211755Z 17013KT 12/02 A2988 RMK A01 T01210017  RH  049%=      5-min Rain = 0
KBI1 211756Z 17014G19KT 12/02 A2988 RMK A01 T01210018  RH  049%=      5-min Rain = 0
KBI1 211757Z 17014KT 12/02 A2988 RMK A01 T01210018  RH  049%=      5-min Rain = 0
KBI1 211758Z 17011KT 12/02 A2988 RMK A01 T01200020  RH  050%=      5-min Rain = 0
KBI1 211759Z 17013KT 12/02 A2988 RMK A01 T01210019  RH  050%=      5-min Rain = 0
KBI1 211800Z 17014KT 12/02 A2988 RMK A01 T01210018  RH  049%=      5-min Rain = 0
KBI1 211801Z 17014KT 12/02 A2989 RMK A01 T01210018  RH  049%=      5-min Rain = 0
KBI1 211802Z 17015KT 12/02 A2989 RMK A01 T01210018  RH  049%=      5-min Rain = 0
KBI1 211803Z 17014KT 12/02 A2988 RMK A01 T01210018  RH  049%=      5-min Rain = 0
KBI1 211804Z 16016KT 12/02 A2988 RMK A01 T01210018  RH  049%=      5-min Rain = 0
KBI1 211805Z 16014KT 12/02 A2988 RMK A01 T01210017  RH  049%=      5-min Rain = 0
KBI1 211806Z 17013KT 12/02 A2988 RMK A01 T01200018  RH  049%=      5-min Rain = 0
KBI1 211807Z 16013KT 12/02 A2988 RMK A01 T01210019  RH  050%=      5-min Rain = 0
KBI1 211808Z 16014KT 12/02 A2988 RMK A01 T01210018  RH  049%=      5-min Rain = 0
KBI1 211809Z 16014G19KT 12/02 A2988 RMK A01 T01210018  RH  049%=      5-min Rain = 0
KBI1 211810Z 16016KT 12/02 A2988 RMK A01 T01200017  RH  049%=      5-min Rain = 0
KBI1 211811Z 17013KT 12/02 A2988 RMK A01 T01200019  RH  050%=      5-min Rain = 0
KBI1 211812Z 16012KT 12/02 A2988 RMK A01 T01210020  RH  050%=      5-min Rain = 0
KBI1 211813Z 16014G19KT 12/02 A2988 RMK A01 T01220019  RH  049%=      5-min Rain = 0
KBI1 211814Z 16012G18KT 12/02 A2988 RMK A01 T01220019  RH  049%=      5-min Rain = 0
KBI1 211815Z 15014KT 12/02 A2988 RMK A01 T01220019  RH  049%=      5-min Rain = 0
KBI1 211816Z 14013KT 12/02 A2988 RMK A01 T01220018  RH  049%=      5-min Rain = 0
KBI1 211817Z 15012KT 12/02 A2988 RMK A01 T01210019  RH  050%=      5-min Rain = 0
KBI1 211818Z 15011KT 12/02 A2988 RMK A01 T01210019  RH  050%=      5-min Rain = 0
KBI1 211819Z 16015KT 12/02 A2988 RMK A01 T01210019  RH  049%=      5-min Rain = 0
KBI1 211820Z 16013G18KT 12/02 A2988 RMK A01 T01210019  RH  050%=      5-min Rain = 0
KBI1 211821Z 16013KT 12/02 A2988 RMK A01 T01210020  RH  050%=      5-min Rain = 0
KBI1 211822Z 16014KT 12/02 A2988 RMK A01 T01220019  RH  050%=      5-min Rain = 0
KBI1 211823Z 16013KT 12/02 A2988 RMK A01 T01210019  RH  050%=      5-min Rain = 0
KBI1 211824Z 15009KT 12/02 A2988 RMK A01 T01220021  RH  050%=      5-min Rain = 0
KBI1 211825Z 16014KT 12/02 A2987 RMK A01 T01230021  RH  050%=      5-min Rain = 0
KBI1 211826Z 16013G18KT 12/02 A2987 RMK A01 T01230021  RH  050%=      5-min Rain = 0
KBI1 211827Z 16014KT 12/02 A2987 RMK A01 T01220020  RH  050%=      5-min Rain = 0
KBI1 211828Z 15013KT 12/02 A2987 RMK A01 T01220021  RH  050%=      5-min Rain = 0
KBI1 211829Z 15014KT 12/02 A2987 RMK A01 T01220020  RH  050%=      5-min Rain = 0
KBI1 211830Z 15012KT 12/02 A2987 RMK A01 T01210020  RH  050%=      5-min Rain = 0
KBI1 211831Z 15011KT 12/02 A2987 RMK A01 T01220021  RH  050%=      5-min Rain = 0
KBI1 211832Z 15010KT 12/02 A2987 RMK A01 T01220021  RH  050%=      5-min Rain = 0
KBI1 211833Z 15010KT 12/02 A2986 RMK A01 T01220022  RH  050%=      5-min Rain = 0
KBI1 211834Z 16012KT 12/02 A2986 RMK A01 T01230021  RH  050%=      5-min Rain = 0
KBI1 211835Z 15010KT 12/02 A2986 RMK A01 T01230022  RH  050%=      5-min Rain = 0
KBI1 211836Z 15009G14KT 12/02 A2986 RMK A01 T01230022  RH  050%=      5-min Rain = 0
KBI1 211837Z 15010KT 12/02 A2986 RMK A01 T01240022  RH  050%=      5-min Rain = 0
KBI1 211838Z 15013KT 12/02 A2986 RMK A01 T01240021  RH  049%=      5-min Rain = 0
KBI1 211839Z 15012KT 12/02 A2986 RMK A01 T01240021  RH  049%=      5-min Rain = 0
KBI1 211840Z 15011G16KT 12/02 A2986 RMK A01 T01240021  RH  050%=      5-min Rain = 0
KBI1 211841Z 14011KT 12/02 A2986 RMK A01 T01240021  RH  050%=      5-min Rain = 0
KBI1 211842Z 15009G15KT 12/02 A2986 RMK A01 T01240022  RH  050%=      5-min Rain = 0
KBI1 211843Z 15011KT 13/02 A2986 RMK A01 T01250021  RH  049%=      5-min Rain = 0
KBI1 211844Z 15012G18KT 13/02 A2986 RMK A01 T01250021  RH  049%=      5-min Rain = 0
KBI1 211845Z 14013G18KT 13/02 A2986 RMK A01 T01250021  RH  049%=      5-min Rain = 0
KBI1 211846Z 15010KT 13/02 A2986 RMK A01 T01250021  RH  049%=      5-min Rain = 0
KBI1 211847Z 14011KT 13/02 A2986 RMK A01 T01260022  RH  049%=      5-min Rain = 0
KBI1 211848Z 16010KT 13/02 A2986 RMK A01 T01260022  RH  049%=      5-min Rain = 0
KBI1 211849Z 16011G16KT 13/03 A2985 RMK A01 T01280025  RH  049%=      5-min Rain = 0
KBI1 211850Z 16010KT 13/02 A2985 RMK A01 T01290024  RH  049%=      5-min Rain = 0
KBI1 211851Z 15012G18KT 13/02 A2985 RMK A01 T01290024  RH  049%=      5-min Rain = 0
KBI1 211852Z 16014G19KT 13/02 A2985 RMK A01 T01290022  RH  048%=      5-min Rain = 0
KBI1 211853Z 15015KT 13/02 A2985 RMK A01 T01280022  RH  048%=      5-min Rain = 0
KBI1 211854Z 15013KT 13/02 A2985 RMK A01 T01280022  RH  049%=      5-min Rain = 0
KBI1 211855Z 15013G18KT 13/02 A2985 RMK A01 T01280022  RH  049%=      5-min Rain = 0
KBI1 211856Z 16014KT 13/02 A2985 RMK A01 T01280022  RH  048%=      5-min Rain = 0
KBI1 211857Z 16012KT 13/02 A2985 RMK A01 T01280022  RH  049%=      5-min Rain = 0
KBI1 211858Z 17013KT 13/02 A2985 RMK A01 T01290024  RH  049%=      5-min Rain = 0
KBI1 211859Z 16013G18KT 13/02 A2985 RMK A01 T01300024  RH  049%=      5-min Rain = 0
KBI1 211900Z 15014G19KT 13/02 A2985 RMK A01 T01300023  RH  048%=      5-min Rain = 0
KBI1 211901Z 16014KT 13/02 A2985 RMK A01 T01300023  RH  048%=      5-min Rain = 0
KBI1 211902Z 16013KT 13/03 A2984 RMK A01 T01310025  RH  049%=      5-min Rain = 0
KBI1 211903Z 17015G20KT 13/03 A2984 RMK A01 T01320025  RH  048%=      5-min Rain = 0
KBI1 211904Z 16013KT 13/02 A2984 RMK A01 T01330024  RH  048%=      5-min Rain = 0
KBI1 211905Z 16014KT 13/03 A2984 RMK A01 T01330025  RH  048%=      5-min Rain = 0
KBI1 211906Z 16015KT 13/03 A2984 RMK A01 T01330025  RH  048%=      5-min Rain = 0
KBI1 211907Z 16015KT 13/02 A2984 RMK A01 T01330024  RH  047%=      5-min Rain = 0
KBI1 211908Z 16013KT 13/02 A2984 RMK A01 T01330024  RH  047%=      5-min Rain = 0
KBI1 211909Z 16012KT 13/03 A2984 RMK A01 T01340026  RH  048%=      5-min Rain = 0
KBI1 211910Z 16017KT 14/03 A2984 RMK A01 T01350026  RH  047%=      5-min Rain = 0
KBI1 211911Z 15017KT 14/03 A2984 RMK A01 T01350025  RH  047%=      5-min Rain = 0
KBI1 211912Z 16017KT 13/02 A2984 RMK A01 T01330024  RH  047%=      5-min Rain = 0
KBI1 211913Z 15014G21KT 13/02 A2984 RMK A01 T01310023  RH  048%=      5-min Rain = 0
KBI1 211914Z 16014G19KT 13/02 A2984 RMK A01 T01310024  RH  048%=      5-min Rain = 0
KBI1 211915Z 16013G18KT 13/03 A2984 RMK A01 T01310025  RH  049%=      5-min Rain = 0
KBI1 211916Z 15015KT 13/03 A2983 RMK A01 T01330026  RH  048%=      5-min Rain = 0
KBI1 211917Z 16012KT 13/03 A2983 RMK A01 T01330026  RH  048%=      5-min Rain = 0
KBI1 211918Z 16011KT 13/03 A2983 RMK A01 T01340028  RH  049%=      5-min Rain = 0
KBI1 211919Z 16013G18KT 14/03 A2983 RMK A01 T01370029  RH  048%=      5-min Rain = 0
KBI1 211920Z 16012G17KT 14/03 A2983 RMK A01 T01370027  RH  047%=      5-min Rain = 0
KBI1 211921Z 15014KT 14/03 A2983 RMK A01 T01370028  RH  048%=      5-min Rain = 0
KBI1 211922Z 16014G19KT 14/03 A2983 RMK A01 T01370026  RH  047%=      5-min Rain = 0
KBI1 211923Z 15015KT 14/03 A2983 RMK A01 T01350026  RH  047%=      5-min Rain = 0
KBI1 211924Z 17019KT 14/03 A2983 RMK A01 T01350026  RH  048%=      5-min Rain = 0
KBI1 211925Z 16018KT 14/03 A2983 RMK A01 T01350025  RH  047%=      5-min Rain = 0
KBI1 211926Z 17018KT 13/02 A2983 RMK A01 T01340024  RH  047%=      5-min Rain = 0
KBI1 211927Z 17017G22KT 14/03 A2983 RMK A01 T01350026  RH  048%=      5-min Rain = 0
KBI1 211928Z 17019KT 14/03 A2983 RMK A01 T01360026  RH  048%=      5-min Rain = 0
KBI1 211929Z 17015KT 14/03 A2982 RMK A01 T01350026  RH  047%=      5-min Rain = 0
KBI1 211930Z 17016G22KT 14/03 A2982 RMK A01 T01360027  RH  048%=      5-min Rain = 0
KBI1 211931Z 17017KT 14/03 A2982 RMK A01 T01370027  RH  047%=      5-min Rain = 0
KBI1 211932Z 17016KT 14/03 A2982 RMK A01 T01380027  RH  047%=      5-min Rain = 0
KBI1 211933Z 17020KT 14/03 A2982 RMK A01 T01390027  RH  047%=      5-min Rain = 0
KBI1 211934Z 17017KT 14/03 A2982 RMK A01 T01390026  RH  047%=      5-min Rain = 0
KBI1 211935Z 17017G23KT 14/03 A2982 RMK A01 T01380026  RH  047%=      5-min Rain = 0
KBI1 211936Z 17019KT 14/03 A2982 RMK A01 T01380026  RH  047%=      5-min Rain = 0
KBI1 211937Z 17019KT 14/03 A2981 RMK A01 T01370026  RH  047%=      5-min Rain = 0
KBI1 211938Z 17019KT 14/03 A2981 RMK A01 T01360026  RH  047%=      5-min Rain = 0
KBI1 211939Z 16016KT 14/03 A2981 RMK A01 T01360027  RH  048%=      5-min Rain = 0
KBI1 211940Z 16013G18KT 14/03 A2982 RMK A01 T01370027  RH  048%=      5-min Rain = 0
KBI1 211941Z 16017KT 14/03 A2981 RMK A01 T01370027  RH  047%=      5-min Rain = 0
KBI1 211942Z 16014KT 14/03 A2981 RMK A01 T01370027  RH  047%=      5-min Rain = 0
KBI1 211943Z 15016KT 14/03 A2981 RMK A01 T01370028  RH  048%=      5-min Rain = 0
KBI1 211944Z 16017KT 14/03 A2981 RMK A01 T01380027  RH  047%=      5-min Rain = 0
KBI1 211945Z 16018KT 14/03 A2981 RMK A01 T01370026  RH  047%=      5-min Rain = 0
KBI1 211946Z 15014G20KT 14/03 A2981 RMK A01 T01370026  RH  047%=      5-min Rain = 0
KBI1 211947Z 17015KT 14/03 A2981 RMK A01 T01370027  RH  047%=      5-min Rain = 0
KBI1 211948Z 17015KT 14/03 A2981 RMK A01 T01380027  RH  047%=      5-min Rain = 0
KBI1 211949Z 16016KT 14/03 A2981 RMK A01 T01390027  RH  047%=      5-min Rain = 0
KBI1 211950Z 16015KT 14/03 A2981 RMK A01 T01390025  RH  046%=      5-min Rain = 0
KBI1 211951Z 17018KT 14/03 A2981 RMK A01 T01380026  RH  047%=      5-min Rain = 0
KBI1 211952Z 17016KT 14/03 A2981 RMK A01 T01360025  RH  047%=      5-min Rain = 0
KBI1 211953Z 17017KT 14/03 A2981 RMK A01 T01370027  RH  047%=      5-min Rain = 0
KBI1 211954Z 15015G20KT 14/03 A2981 RMK A01 T01380028  RH  047%=      5-min Rain = 0
KBI1 211955Z 15017G22KT 14/03 A2981 RMK A01 T01380026  RH  047%=      5-min Rain = 0
KBI1 211956Z 17015KT 14/03 A2981 RMK A01 T01370025  RH  046%=      5-min Rain = 0
KBI1 211957Z 16014KT 14/03 A2981 RMK A01 T01370025  RH  047%=      5-min Rain = 0
KBI1 211958Z 17010KT 14/03 A2981 RMK A01 T01370026  RH  047%=      5-min Rain = 0
KBI1 211959Z 15011G16KT 14/03 A2981 RMK A01 T01380028  RH  047%=      5-min Rain = 0
KBI1 212000Z 15015KT 14/03 A2981 RMK A01 T01390026  RH  046%=      5-min Rain = 0
KBI1 212001Z 15015G21KT 14/02 A298 RMK A01 T01380024  RH  046%=      5-min Rain = 0
KBI1 212002Z 16015G20KT 14/02 A298 RMK A01 T01370024  RH  046%=      5-min Rain = 0
KBI1 212003Z 14014KT 14/03 A298 RMK A01 T01370025  RH  047%=      5-min Rain = 0
KBI1 212004Z 16014KT 14/03 A298 RMK A01 T01370025  RH  047%=      5-min Rain = 0
KBI1 212005Z 16014KT 14/02 A298 RMK A01 T01370024  RH  046%=      5-min Rain = 0
KBI1 212006Z 15015KT 14/03 A298 RMK A01 T01370026  RH  047%=      5-min Rain = 0
KBI1 212007Z 16014KT 14/03 A298 RMK A01 T01370026  RH  047%=      5-min Rain = 0
KBI1 212008Z 15016KT 14/03 A298 RMK A01 T01380025  RH  046%=      5-min Rain = 0
KBI1 212009Z 16016KT 14/03 A298 RMK A01 T01390025  RH  046%=      5-min Rain = 0
KBI1 212010Z 15014KT 14/03 A298 RMK A01 T01380026  RH  046%=      5-min Rain = 0
KBI1 212011Z 15013G18KT 14/02 A298 RMK A01 T01380024  RH  046%=      5-min Rain = 0
KBI1 212012Z 14014KT 14/02 A298 RMK A01 T01380024  RH  046%=      5-min Rain = 0
KBI1 212013Z 15014G19KT 14/02 A298 RMK A01 T01380024  RH  046%=      5-min Rain = 0
KBI1 212014Z 15013G19KT 14/02 A298 RMK A01 T01390024  RH  046%=      5-min Rain = 0
KBI1 212015Z 16015KT 14/02 A298 RMK A01 T01390024  RH  046%=      5-min Rain = 0
KBI1 212016Z 16012G17KT 14/03 A298 RMK A01 T01390025  RH  046%=      5-min Rain = 0
KBI1 212017Z 15012G18KT 14/03 A298 RMK A01 T01410027  RH  046%=      5-min Rain = 0
KBI1 212018Z 15011G16KT 14/03 A298 RMK A01 T01410025  RH  045%=      5-min Rain = 0
KBI1 212019Z 16013KT 14/03 A298 RMK A01 T01410026  RH  046%=      5-min Rain = 0
KBI1 212020Z 16015KT 14/03 A298 RMK A01 T01410025  RH  046%=      5-min Rain = 0
KBI1 212021Z 16014KT 14/03 A298 RMK A01 T01410025  RH  046%=      5-min Rain = 0
KBI1 212022Z 16014G19KT 14/03 A298 RMK A01 T01420026  RH  045%=      5-min Rain = 0
KBI1 212023Z 15016G21KT 14/02 A298 RMK A01 T01420024  RH  045%=      5-min Rain = 0
KBI1 212024Z 16014KT 14/02 A298 RMK A01 T01400023  RH  045%=      5-min Rain = 0
KBI1 212025Z 16019KT 14/02 A298 RMK A01 T01400023  RH  045%=      5-min Rain = 0
KBI1 212026Z 16015KT 14/02 A2979 RMK A01 T01390023  RH  045%=      5-min Rain = 0
KBI1 212027Z 16016KT 14/03 A2979 RMK A01 T01390025  RH  046%=      5-min Rain = 0
KBI1 212028Z 15017KT 14/02 A2979 RMK A01 T01390023  RH  045%=      5-min Rain = 0
KBI1 212029Z 16013G18KT 14/02 A2979 RMK A01 T01390024  RH  046%=      5-min Rain = 0
KBI1 212030Z 16014KT 14/02 A2979 RMK A01 T01390024  RH  046%=      5-min Rain = 0
KBI1 212031Z 16012G19KT 14/03 A2979 RMK A01 T01400026  RH  046%=      5-min Rain = 0
KBI1 212032Z 17015KT 14/03 A2979 RMK A01 T01420026  RH  045%=      5-min Rain = 0
KBI1 212033Z 16012G17KT 14/03 A2979 RMK A01 T01430026  RH  045%=      5-min Rain = 0
KBI1 212034Z 17016KT 14/03 A2979 RMK A01 T01440026  RH  045%=      5-min Rain = 0
KBI1 212035Z 17017KT 15/03 A2979 RMK A01 T01450026  RH  045%=      5-min Rain = 0
KBI1 212036Z 17012G17KT 15/03 A298 RMK A01 T01450026  RH  045%=      5-min Rain = 0
KBI1 212037Z 17018KT 15/03 A298 RMK A01 T01460026  RH  044%=      5-min Rain = 0
KBI1 212038Z 16017KT 15/02 A298 RMK A01 T01460024  RH  044%=      5-min Rain = 0
KBI1 212039Z 16015G20KT 15/02 A298 RMK A01 T01460024  RH  044%=      5-min Rain = 0
KBI1 212040Z 16015G20KT 15/02 A298 RMK A01 T01460022  RH  043%=      5-min Rain = 0
KBI1 212041Z 16017G22KT 14/02 A298 RMK A01 T01440022  RH  043%=      5-min Rain = 0
KBI1 212042Z 17017KT 14/02 A298 RMK A01 T01440023  RH  044%=      5-min Rain = 0
KBI1 212043Z 16015G20KT 14/02 A298 RMK A01 T01440022  RH  044%=      5-min Rain = 0
KBI1 212044Z 17012KT 14/02 A298 RMK A01 T01440022  RH  044%=      5-min Rain = 0
KBI1 212045Z 16016KT 15/02 A298 RMK A01 T01450024  RH  044%=      5-min Rain = 0
KBI1 212046Z 16018KT 15/02 A298 RMK A01 T01450024  RH  044%=      5-min Rain = 0
KBI1 212047Z 17015KT 15/03 A298 RMK A01 T01450026  RH  045%=      5-min Rain = 0
KBI1 212048Z 17017KT 15/03 A298 RMK A01 T01460026  RH  044%=      5-min Rain = 0
KBI1 212049Z 17015KT 15/02 A298 RMK A01 T01460024  RH  044%=      5-min Rain = 0
KBI1 212050Z 16014KT 15/02 A298 RMK A01 T01460024  RH  044%=      5-min Rain = 0
KBI1 212051Z 15013KT 15/02 A298 RMK A01 T01460024  RH  044%=      5-min Rain = 0
KBI1 212052Z 17012G17KT 15/02 A298 RMK A01 T01460023  RH  043%=      5-min Rain = 0
KBI1 212053Z 17014G19KT 15/02 A298 RMK A01 T01470023  RH  043%=      5-min Rain = 0
KBI1 212054Z 16012G18KT 15/02 A298 RMK A01 T01470023  RH  043%=      5-min Rain = 0
KBI1 212055Z 16013KT 15/02 A298 RMK A01 T01470023  RH  043%=      5-min Rain = 0
KBI1 212056Z 17015KT 15/02 A298 RMK A01 T01480022  RH  043%=      5-min Rain = 0
KBI1 212057Z 17013KT 15/02 A298 RMK A01 T01480022  RH  043%=      5-min Rain = 0
KBI1 212058Z 17013G18KT 15/02 A298 RMK A01 T01470021  RH  043%=      5-min Rain = 0
KBI1 212059Z 16014KT 15/02 A298 RMK A01 T01460022  RH  043%=      5-min Rain = 0
KBI1 212100Z 17014KT 15/02 A298 RMK A01 T01460022  RH  043%=      5-min Rain = 0
KBI1 212101Z 17014KT 15/02 A298 RMK A01 T01460021  RH  043%=      5-min Rain = 0
KBI1 212102Z 17014KT 15/02 A298 RMK A01 T01460021  RH  043%=      5-min Rain = 0
KBI1 212103Z 17013KT 15/02 A298 RMK A01 T01460022  RH  043%=      5-min Rain = 0
KBI1 212104Z 17012KT 15/02 A298 RMK A01 T01470022  RH  043%=      5-min Rain = 0
KBI1 212105Z 17009G14KT 15/02 A298 RMK A01 T01480022  RH  043%=      5-min Rain = 0
KBI1 212106Z 17015KT 15/02 A298 RMK A01 T01490021  RH  042%=      5-min Rain = 0
KBI1 212107Z 17014G20KT 15/02 A298 RMK A01 T01480020  RH  042%=      5-min Rain = 0
KBI1 212108Z 17014KT 15/02 A298 RMK A01 T01470020  RH  042%=      5-min Rain = 0
KBI1 212109Z 17017KT 15/02 A298 RMK A01 T01460019  RH  042%=      5-min Rain = 0
KBI1 212110Z 16015KT 15/02 A298 RMK A01 T01450018  RH  042%=      5-min Rain = 0
KBI1 212111Z 16012KT 14/02 A298 RMK A01 T01440018  RH  042%=      5-min Rain = 0
KBI1 212112Z 16013G19KT 14/02 A298 RMK A01 T01440018  RH  042%=      5-min Rain = 0
KBI1 212113Z 15014KT 14/02 A298 RMK A01 T01440018  RH  042%=      5-min Rain = 0
KBI1 212114Z 16013KT 15/02 A298 RMK A01 T01450019  RH  043%=      5-min Rain = 0
KBI1 212115Z 15013KT 15/02 A298 RMK A01 T01460020  RH  042%=      5-min Rain = 0
KBI1 212116Z 16011G18KT 15/02 A298 RMK A01 T01460019  RH  042%=      5-min Rain = 0
KBI1 212117Z 16016KT 15/02 A298 RMK A01 T01460019  RH  042%=      5-min Rain = 0
KBI1 212118Z 17012KT 15/02 A298 RMK A01 T01450018  RH  042%=      5-min Rain = 0
KBI1 212119Z 16013G18KT 14/02 A298 RMK A01 T01440019  RH  043%=      5-min Rain = 0
KBI1 212120Z 16015KT 15/02 A298 RMK A01 T01450019  RH  043%=      5-min Rain = 0
KBI1 212121Z 16015KT 15/02 A298 RMK A01 T01450018  RH  042%=      5-min Rain = 0
KBI1 212122Z 17015KT 15/02 A298 RMK A01 T01450017  RH  042%=      5-min Rain = 0
KBI1 212123Z 16013KT 15/02 A298 RMK A01 T01450018  RH  042%=      5-min Rain = 0
KBI1 212124Z 16013KT 15/02 A298 RMK A01 T01450017  RH  042%=      5-min Rain = 0
KBI1 212125Z 16011G16KT 15/02 A298 RMK A01 T01450017  RH  042%=      5-min Rain = 0
KBI1 212126Z 17010KT 15/02 A298 RMK A01 T01450019  RH  042%=      5-min Rain = 0
KBI1 212127Z 16015KT 15/02 A298 RMK A01 T01460019  RH  042%=      5-min Rain = 0
KBI1 212128Z 16014KT 15/02 A298 RMK A01 T01460018  RH  042%=      5-min Rain = 0
KBI1 212129Z 17017KT 15/02 A298 RMK A01 T01470017  RH  041%=      5-min Rain = 0
KBI1 212130Z 17013KT 15/02 A298 RMK A01 T01470016  RH  041%=      5-min Rain = 0
KBI1 212131Z 17013G18KT 15/02 A298 RMK A01 T01460018  RH  042%=      5-min Rain = 0
KBI1 212132Z 17012G17KT 15/02 A298 RMK A01 T01480021  RH  042%=      5-min Rain = 0
KBI1 212133Z 17014KT 15/02 A298 RMK A01 T01510019  RH  041%=      5-min Rain = 0
KBI1 212134Z 16016KT 15/02 A2979 RMK A01 T01510019  RH  041%=      5-min Rain = 0
KBI1 212135Z 17016KT 15/02 A2979 RMK A01 T01500018  RH  041%=      5-min Rain = 0
KBI1 212136Z 17016KT 15/02 A2979 RMK A01 T01490018  RH  041%=      5-min Rain = 0
KBI1 212137Z 16015KT 15/02 A2979 RMK A01 T01490019  RH  041%=      5-min Rain = 0
KBI1 212138Z 16015KT 15/02 A2979 RMK A01 T01490019  RH  041%=      5-min Rain = 0
KBI1 212139Z 16010KT 15/02 A2979 RMK A01 T01490020  RH  042%=      5-min Rain = 0
KBI1 212140Z 17013KT 15/02 A2979 RMK A01 T01500022  RH  042%=      5-min Rain = 0
KBI1 212141Z 17017KT 15/02 A2979 RMK A01 T01510020  RH  041%=      5-min Rain = 0
KBI1 212142Z 16015G20KT 15/02 A2979 RMK A01 T01500019  RH  041%=      5-min Rain = 0
KBI1 212143Z 16013KT 15/02 A2979 RMK A01 T01500021  RH  042%=      5-min Rain = 0
KBI1 212144Z 16013KT 15/02 A2979 RMK A01 T01510021  RH  041%=      5-min Rain = 0
KBI1 212145Z 15013KT 15/02 A2979 RMK A01 T01520020  RH  041%=      5-min Rain = 0
KBI1 212146Z 16012KT 15/02 A2979 RMK A01 T01520020  RH  041%=      5-min Rain = 0
KBI1 212147Z 16013G18KT 15/02 A2979 RMK A01 T01520021  RH  041%=      5-min Rain = 0
KBI1 212148Z 15015G21KT 15/02 A2979 RMK A01 T01510017  RH  040%=      5-min Rain = 0
KBI1 212149Z 16015G20KT 15/02 A2979 RMK A01 T01480015  RH  041%=      5-min Rain = 0
KBI1 212150Z 17015KT 15/02 A2979 RMK A01 T01460017  RH  042%=      5-min Rain = 0
KBI1 212151Z 17016KT 15/02 A2979 RMK A01 T01480018  RH  042%=      5-min Rain = 0
KBI1 212152Z 17015KT 15/02 A2979 RMK A01 T01480017  RH  041%=      5-min Rain = 0
KBI1 212153Z 17017KT 15/02 A2979 RMK A01 T01470018  RH  041%=      5-min Rain = 0
KBI1 212154Z 17015KT 15/02 A2979 RMK A01 T01480018  RH  041%=      5-min Rain = 0
KBI1 212155Z 16014KT 15/02 A2979 RMK A01 T01480019  RH  041%=      5-min Rain = 0
KBI1 212156Z 16013KT 15/02 A2979 RMK A01 T01490019  RH  041%=      5-min Rain = 0
KBI1 212157Z 17015KT 15/02 A2979 RMK A01 T01490020  RH  041%=      5-min Rain = 0
KBI1 212158Z 17015KT 15/02 A2979 RMK A01 T01500020  RH  042%=      5-min Rain = 0
KBI1 212159Z 15012KT 15/02 A2979 RMK A01 T01500020  RH  042%=      5-min Rain = 0
KBI1 212200Z 15013KT 15/02 A2979 RMK A01 T01500020  RH  041%=      5-min Rain = 0
KBI1 212201Z 15013KT 15/02 A2979 RMK A01 T01490019  RH  041%=      5-min Rain = 0
KBI1 212202Z 16015KT 15/02 A2979 RMK A01 T01500021  RH  042%=      5-min Rain = 0
KBI1 212203Z 16013KT 15/02 A2979 RMK A01 T01530022  RH  041%=      5-min Rain = 0
KBI1 212204Z 15011KT 15/02 A2979 RMK A01 T01540024  RH  041%=      5-min Rain = 0
KBI1 212205Z 15011G16KT 16/02 A2979 RMK A01 T01550022  RH  041%=      5-min Rain = 0
KBI1 212206Z 15012KT 16/02 A2979 RMK A01 T01550020  RH  040%=      5-min Rain = 0
KBI1 212207Z 15013G18KT 15/02 A2979 RMK A01 T01530020  RH  041%=      5-min Rain = 0
KBI1 212208Z 17017KT 15/02 A2979 RMK A01 T01520021  RH  041%=      5-min Rain = 0
KBI1 212209Z 17016KT 15/02 A2978 RMK A01 T01530019  RH  040%=      5-min Rain = 0
KBI1 212210Z 17016KT 15/02 A2978 RMK A01 T01530020  RH  041%=      5-min Rain = 0
KBI1 212211Z 16016KT 15/02 A2978 RMK A01 T01520021  RH  041%=      5-min Rain = 0
KBI1 212212Z 17014KT 15/02 A2978 RMK A01 T01530020  RH  041%=      5-min Rain = 0
KBI1 212213Z 16015KT 15/02 A2978 RMK A01 T01520021  RH  041%=      5-min Rain = 0
KBI1 212214Z 15012KT 15/02 A2978 RMK A01 T01520023  RH  042%=      5-min Rain = 0
KBI1 212215Z 14008KT 15/02 A2978 RMK A01 T01530022  RH  041%=      5-min Rain = 0
KBI1 212216Z 16012G18KT 15/02 A2978 RMK A01 T01540022  RH  041%=      5-min Rain = 0
KBI1 212217Z 15014KT 15/02 A2978 RMK A01 T01520017  RH  040%=      5-min Rain = 0
KBI1 212218Z 16014G19KT 15/02 A2978 RMK A01 T01480016  RH  041%=      5-min Rain = 0
KBI1 212219Z 14012G17KT 15/02 A2978 RMK A01 T01460018  RH  042%=      5-min Rain = 0
KBI1 212220Z 14011KT 15/02 A2978 RMK A01 T01470019  RH  042%=      5-min Rain = 0
KBI1 212221Z 14013KT 15/02 A2978 RMK A01 T01480019  RH  042%=      5-min Rain = 0
KBI1 212222Z 14010G15KT 15/02 A2978 RMK A01 T01500020  RH  041%=      5-min Rain = 0
KBI1 212223Z 16013KT 15/02 A2978 RMK A01 T01520021  RH  041%=      5-min Rain = 0
KBI1 212224Z 16013KT 15/02 A2978 RMK A01 T01520021  RH  041%=      5-min Rain = 0
KBI1 212225Z 15015KT 15/02 A2978 RMK A01 T01530020  RH  041%=      5-min Rain = 0
KBI1 212226Z 15013KT 15/02 A2978 RMK A01 T01520020  RH  041%=      5-min Rain = 0
KBI1 212227Z 16012KT 15/02 A2978 RMK A01 T01520020  RH  041%=      5-min Rain = 0
KBI1 212228Z 16015KT 15/02 A2978 RMK A01 T01520019  RH  041%=      5-min Rain = 0
KBI1 212229Z 16012KT 15/02 A2978 RMK A01 T01520019  RH  040%=      5-min Rain = 0
KBI1 212230Z 15013KT 15/02 A2978 RMK A01 T01520018  RH  040%=      5-min Rain = 0
KBI1 212231Z 16014KT 15/02 A2978 RMK A01 T01520019  RH  041%=      5-min Rain = 0
KBI1 212232Z 16013KT 15/02 A2978 RMK A01 T01520019  RH  041%=      5-min Rain = 0
KBI1 212233Z 15011KT 15/02 A2978 RMK A01 T01510020  RH  041%=      5-min Rain = 0
KBI1 212234Z 15012KT 15/02 A2978 RMK A01 T01520020  RH  041%=      5-min Rain = 0
KBI1 212235Z 15011G17KT 15/02 A2978 RMK A01 T01520020  RH  041%=      5-min Rain = 0
KBI1 212236Z 15011KT 15/02 A2978 RMK A01 T01520019  RH  041%=      5-min Rain = 0
KBI1 212237Z 15010KT 15/02 A2978 RMK A01 T01530020  RH  041%=      5-min Rain = 0
KBI1 212238Z 16013G18KT 16/02 A2978 RMK A01 T01550021  RH  041%=      5-min Rain = 0
KBI1 212239Z 16014KT 16/02 A2978 RMK A01 T01550019  RH  040%=      5-min Rain = 0
KBI1 212240Z 17014KT 15/02 A2978 RMK A01 T01530018  RH  040%=      5-min Rain = 0
KBI1 212241Z 15011KT 15/02 A2978 RMK A01 T01530019  RH  041%=      5-min Rain = 0
KBI1 212242Z 16013KT 15/02 A2978 RMK A01 T01520019  RH  041%=      5-min Rain = 0
KBI1 212243Z 15010KT 15/02 A2978 RMK A01 T01520019  RH  041%=      5-min Rain = 0
KBI1 212244Z 14010KT 15/02 A2978 RMK A01 T01530021  RH  041%=      5-min Rain = 0
KBI1 212245Z 14008KT 15/02 A2978 RMK A01 T01530022  RH  041%=      5-min Rain = 0
KBI1 212246Z 13013KT 15/02 A2978 RMK A01 T01540023  RH  041%=      5-min Rain = 0
KBI1 212247Z 15011G17KT 15/02 A2978 RMK A01 T01540022  RH  041%=      5-min Rain = 0
KBI1 212248Z 13013G19KT 16/02 A2978 RMK A01 T01550022  RH  041%=      5-min Rain = 0
KBI1 212249Z 15015KT 15/02 A2978 RMK A01 T01540020  RH  040%=      5-min Rain = 0
KBI1 212250Z 14010KT 15/02 A2978 RMK A01 T01530020  RH  041%=      5-min Rain = 0
KBI1 212251Z 14014KT 15/02 A2978 RMK A01 T01520020  RH  041%=      5-min Rain = 0
KBI1 212252Z 14012KT 15/02 A2978 RMK A01 T01520019  RH  041%=      5-min Rain = 0
KBI1 212253Z 14012KT 15/02 A2978 RMK A01 T01520019  RH  041%=      5-min Rain = 0
KBI1 212254Z 14010G15KT 15/02 A2978 RMK A01 T01520021  RH  041%=      5-min Rain = 0
KBI1 212255Z 14010G15KT 15/02 A2978 RMK A01 T01530021  RH  041%=      5-min Rain = 0
KBI1 212256Z 16010KT 15/02 A2978 RMK A01 T01530021  RH  041%=      5-min Rain = 0
KBI1 212257Z 15008G14KT 15/02 A2978 RMK A01 T01540022  RH  041%=      5-min Rain = 0
KBI1 212258Z 14013G18KT 16/02 A2978 RMK A01 T01550021  RH  040%=      5-min Rain = 0
KBI1 212259Z 13013G19KT 15/02 A2978 RMK A01 T01540020  RH  040%=      5-min Rain = 0
KBI1 212300Z 14012KT 15/02 A2978 RMK A01 T01530020  RH  041%=      5-min Rain = 0
KBI1 212301Z 14010G15KT 15/02 A2978 RMK A01 T01530021  RH  041%=      5-min Rain = 0
KBI1 212302Z 15012KT 15/02 A2978 RMK A01 T01530021  RH  041%=      5-min Rain = 0
KBI1 212303Z 14010G15KT 15/02 A2978 RMK A01 T01530021  RH  041%=      5-min Rain = 0
KBI1 212304Z 15008G13KT 15/02 A2978 RMK A01 T01540021  RH  041%=      5-min Rain = 0
KBI1 212305Z 15012KT 15/02 A2978 RMK A01 T01540021  RH  041%=      5-min Rain = 0
KBI1 212306Z 14008KT 16/02 A2978 RMK A01 T01550022  RH  041%=      5-min Rain = 0
KBI1 212307Z 14010G15KT 16/02 A2978 RMK A01 T01550023  RH  041%=      5-min Rain = 0
KBI1 212308Z 15010KT 16/02 A2978 RMK A01 T01550023  RH  041%=      5-min Rain = 0
KBI1 212309Z 15012KT 16/02 A2978 RMK A01 T01550023  RH  041%=      5-min Rain = 0
KBI1 212310Z 15009KT 15/02 A2979 RMK A01 T01540023  RH  041%=      5-min Rain = 0
KBI1 212311Z 16015KT 15/02 A2978 RMK A01 T01540022  RH  041%=      5-min Rain = 0
KBI1 212312Z 16013KT 15/02 A2978 RMK A01 T01540021  RH  041%=      5-min Rain = 0
KBI1 212313Z 15013KT 15/02 A2978 RMK A01 T01530020  RH  041%=      5-min Rain = 0
KBI1 212314Z 14010KT 15/02 A2979 RMK A01 T01520020  RH  041%=      5-min Rain = 0
KBI1 212315Z 14010G16KT 15/02 A2979 RMK A01 T01520021  RH  041%=      5-min Rain = 0
KBI1 212316Z 14011G16KT 15/02 A2979 RMK A01 T01520020  RH  041%=      5-min Rain = 0
KBI1 212317Z 14012KT 15/02 A2979 RMK A01 T01520020  RH  041%=      5-min Rain = 0
KBI1 212318Z 14013KT 15/02 A2979 RMK A01 T01520020  RH  041%=      5-min Rain = 0
KBI1 212319Z 14010KT 15/02 A2979 RMK A01 T01510021  RH  041%=      5-min Rain = 0
KBI1 212320Z 15011KT 15/02 A2979 RMK A01 T01510021  RH  041%=      5-min Rain = 0
KBI1 212321Z 13010G15KT 15/02 A2979 RMK A01 T01510021  RH  042%=      5-min Rain = 0
KBI1 212322Z 14012G17KT 15/02 A2979 RMK A01 T01510021  RH  041%=      5-min Rain = 0
KBI1 212323Z 14008KT 15/02 A2979 RMK A01 T01510022  RH  042%=      5-min Rain = 0
KBI1 212324Z 14009G16KT 15/02 A2979 RMK A01 T01510023  RH  042%=      5-min Rain = 0
KBI1 212325Z 15010KT 15/02 A2979 RMK A01 T01520022  RH  042%=      5-min Rain = 0
KBI1 212326Z 14009KT 15/02 A2979 RMK A01 T01520022  RH  041%=      5-min Rain = 0
KBI1 212327Z 15012KT 15/02 A2979 RMK A01 T01520023  RH  042%=      5-min Rain = 0
KBI1 212328Z 15012KT 15/02 A2979 RMK A01 T01520023  RH  042%=      5-min Rain = 0
KBI1 212329Z 12010KT 15/02 A2979 RMK A01 T01510024  RH  042%=      5-min Rain = 0
KBI1 212330Z 13013KT 15/02 A2979 RMK A01 T01510024  RH  042%=      5-min Rain = 0
KBI1 212331Z 13012G17KT 15/02 A2979 RMK A01 T01510024  RH  042%=      5-min Rain = 0
KBI1 212332Z 14011KT 15/03 A2979 RMK A01 T01500025  RH  043%=      5-min Rain = 0
KBI1 212333Z 14013KT 15/02 A2979 RMK A01 T01500024  RH  043%=      5-min Rain = 0
KBI1 212334Z 15011KT 15/02 A2979 RMK A01 T01490024  RH  043%=      5-min Rain = 0
KBI1 212335Z 13010KT 15/02 A2979 RMK A01 T01480024  RH  043%=      5-min Rain = 0
KBI1 212336Z 14013KT 15/03 A2979 RMK A01 T01480025  RH  043%=      5-min Rain = 0
KBI1 212337Z 15008KT 15/03 A2979 RMK A01 T01480025  RH  044%=      5-min Rain = 0
KBI1 212338Z 14008KT 15/03 A2979 RMK A01 T01480026  RH  044%=      5-min Rain = 0
KBI1 212339Z 13009G15KT 15/03 A2979 RMK A01 T01490026  RH  044%=      5-min Rain = 0
KBI1 212340Z 14011G16KT 15/03 A2979 RMK A01 T01490026  RH  043%=      5-min Rain = 0
KBI1 212341Z 14010KT 15/03 A2979 RMK A01 T01490025  RH  043%=      5-min Rain = 0
KBI1 212342Z 14011G17KT 15/03 A2979 RMK A01 T01480025  RH  043%=      5-min Rain = 0
KBI1 212343Z 14013G19KT 15/03 A2979 RMK A01 T01480025  RH  043%=      5-min Rain = 0
KBI1 212344Z 14013G19KT 15/02 A2979 RMK A01 T01470024  RH  043%=      5-min Rain = 0
KBI1 212345Z 14014KT 15/02 A2979 RMK A01 T01470023  RH  043%=      5-min Rain = 0
KBI1 212346Z 14009KT 15/02 A2979 RMK A01 T01460024  RH  044%=      5-min Rain = 0
KBI1 212347Z 14011G17KT 15/02 A2979 RMK A01 T01460024  RH  044%=      5-min Rain = 0
KBI1 212348Z 15011G16KT 15/02 A2979 RMK A01 T01460024  RH  044%=      5-min Rain = 0
KBI1 212349Z 14011KT 15/02 A2979 RMK A01 T01460024  RH  044%=      5-min Rain = 0
KBI1 212350Z 14013KT 15/02 A2979 RMK A01 T01450024  RH  044%=      5-min Rain = 0
KBI1 212351Z 14012KT 15/02 A2979 RMK A01 T01450023  RH  044%=      5-min Rain = 0
KBI1 212352Z 14012KT 14/02 A2979 RMK A01 T01440023  RH  044%=      5-min Rain = 0
KBI1 212353Z 15008KT 14/02 A2979 RMK A01 T01440024  RH  044%=      5-min Rain = 0
KBI1 212354Z 15010KT 14/02 A2979 RMK A01 T01430024  RH  045%=      5-min Rain = 0
KBI1 212355Z 15013KT 14/02 A2979 RMK A01 T01430024  RH  045%=      5-min Rain = 0
KBI1 212356Z 15011KT 14/02 A2979 RMK A01 T01430024  RH  044%=      5-min Rain = 0
KBI1 212357Z 15011G16KT 14/02 A2979 RMK A01 T01430023  RH  044%=      5-min Rain = 0
KBI1 212358Z 15012KT 14/02 A2979 RMK A01 T01430023  RH  044%=      5-min Rain = 0
KBI1 212359Z 15011KT 14/02 A2979 RMK A01 T01420023  RH  044%=      5-min Rain = 0
KBI1 220000Z 14009KT 14/02 A298 RMK A01 T01410022  RH  045%=      5-min Rain = 0
KBI1 220001Z 15009G14KT 14/02 A298 RMK A01 T01400023  RH  045%=      5-min Rain = 0
KBI1 220002Z 15011KT 14/02 A298 RMK A01 T01390023  RH  045%=      5-min Rain = 0
KBI1 220003Z 15010KT 14/02 A298 RMK A01 T01390023  RH  045%=      5-min Rain = 0
KBI1 220004Z 15011KT 14/02 A298 RMK A01 T01390023  RH  045%=      5-min Rain = 0
KBI1 220005Z 15013KT 14/02 A298 RMK A01 T01390023  RH  045%=      5-min Rain = 0
KBI1 220006Z 15009KT 14/02 A298 RMK A01 T01390023  RH  045%=      5-min Rain = 0
KBI1 220007Z 15010G15KT 14/02 A298 RMK A01 T01390023  RH  045%=      5-min Rain = 0
KBI1 220008Z 16012KT 14/02 A298 RMK A01 T01390022  RH  045%=      5-min Rain = 0
KBI1 220009Z 14009KT 14/02 A298 RMK A01 T01390022  RH  045%=      5-min Rain = 0
KBI1 220010Z 15009G14KT 14/02 A298 RMK A01 T01380022  RH  045%=      5-min Rain = 0
KBI1 220011Z 15010KT 14/02 A298 RMK A01 T01380022  RH  045%=      5-min Rain = 0
KBI1 220012Z 15011KT 14/02 A298 RMK A01 T01380022  RH  045%=      5-min Rain = 0
KBI1 220013Z 15008KT 14/02 A298 RMK A01 T01380022  RH  045%=      5-min Rain = 0
KBI1 220014Z 15008KT 14/02 A298 RMK A01 T01370022  RH  045%=      5-min Rain = 0
KBI1 220015Z 15011G16KT 14/02 A298 RMK A01 T01370021  RH  045%=      5-min Rain = 0
KBI1 220016Z 15014KT 14/02 A298 RMK A01 T01370021  RH  045%=      5-min Rain = 0
KBI1 220017Z 15009G15KT 14/02 A298 RMK A01 T01360020  RH  045%=      5-min Rain = 0
KBI1 220018Z 14008KT 14/02 A298 RMK A01 T01360020  RH  045%=      5-min Rain = 0
KBI1 220019Z 15008KT 14/02 A298 RMK A01 T01350020  RH  046%=      5-min Rain = 0
KBI1 220020Z 14008KT 14/02 A298 RMK A01 T01350020  RH  046%=      5-min Rain = 0
KBI1 220021Z 14006KT 14/02 A298 RMK A01 T01350021  RH  046%=      5-min Rain = 0
KBI1 220022Z 14007KT 13/02 A298 RMK A01 T01330020  RH  046%=      5-min Rain = 0
KBI1 220023Z 14007KT 13/02 A298 RMK A01 T01330020  RH  046%=      5-min Rain = 0
KBI1 220024Z 14008KT 13/02 A298 RMK A01 T01330020  RH  046%=      5-min Rain = 0
KBI1 220025Z 13009KT 13/02 A298 RMK A01 T01320020  RH  046%=      5-min Rain = 0
KBI1 220026Z 14007KT 13/02 A298 RMK A01 T01320020  RH  047%=      5-min Rain = 0
KBI1 220027Z 13008KT 13/02 A298 RMK A01 T01310020  RH  047%=      5-min Rain = 0
KBI1 220028Z 14008KT 13/02 A298 RMK A01 T01300020  RH  047%=      5-min Rain = 0
KBI1 220029Z 14007KT 13/02 A298 RMK A01 T01300021  RH  047%=      5-min Rain = 0
KBI1 220030Z 14009KT 13/02 A298 RMK A01 T01290020  RH  048%=      5-min Rain = 0
KBI1 220031Z 13007KT 13/02 A298 RMK A01 T01290021  RH  048%=      5-min Rain = 0
KBI1 220032Z 14008KT 13/02 A298 RMK A01 T01280021  RH  048%=      5-min Rain = 0
KBI1 220033Z 14007KT 13/02 A298 RMK A01 T01270021  RH  048%=      5-min Rain = 0
KBI1 220034Z 14008KT 13/02 A298 RMK A01 T01270021  RH  048%=      5-min Rain = 0
KBI1 220035Z 14006KT 13/02 A298 RMK A01 T01260021  RH  049%=      5-min Rain = 0
KBI1 220036Z 14009KT 13/02 A298 RMK A01 T01250021  RH  049%=      5-min Rain = 0
KBI1 220037Z 14008G13KT 13/02 A2981 RMK A01 T01250020  RH  049%=      5-min Rain = 0
KBI1 220038Z 14009G14KT 13/02 A2981 RMK A01 T01250021  RH  049%=      5-min Rain = 0
KBI1 220039Z 13009KT 12/02 A2981 RMK A01 T01240020  RH  049%=      5-min Rain = 0
KBI1 220040Z 14010KT 12/02 A2981 RMK A01 T01240020  RH  049%=      5-min Rain = 0
KBI1 220041Z 14008KT 12/02 A2981 RMK A01 T01240021  RH  049%=      5-min Rain = 0
KBI1 220042Z 14008KT 12/02 A2981 RMK A01 T01240020  RH  049%=      5-min Rain = 0
KBI1 220043Z 14008KT 12/02 A2981 RMK A01 T01240020  RH  049%=      5-min Rain = 0
KBI1 220044Z 14010KT 12/02 A2981 RMK A01 T01230020  RH  049%=      5-min Rain = 0
KBI1 220045Z 13009KT 12/02 A2981 RMK A01 T01230020  RH  049%=      5-min Rain = 0
KBI1 220046Z 13009KT 12/02 A2981 RMK A01 T01230020  RH  049%=      5-min Rain = 0
KBI1 220047Z 13008KT 12/02 A2981 RMK A01 T01230020  RH  050%=      5-min Rain = 0
KBI1 220048Z 13007KT 12/02 A2981 RMK A01 T01220020  RH  050%=      5-min Rain = 0
KBI1 220049Z 13008KT 12/02 A2981 RMK A01 T01220020  RH  050%=      5-min Rain = 0
KBI1 220050Z 13008KT 12/02 A2981 RMK A01 T01210020  RH  050%=      5-min Rain = 0
KBI1 220051Z 14007KT 12/02 A2981 RMK A01 T01210020  RH  050%=      5-min Rain = 0
KBI1 220052Z 13008KT 12/02 A2981 RMK A01 T01210020  RH  050%=      5-min Rain = 0
KBI1 220053Z 13008KT 12/02 A2981 RMK A01 T01210020  RH  050%=      5-min Rain = 0
KBI1 220054Z 13007KT 12/02 A2982 RMK A01 T01200020  RH  050%=      5-min Rain = 0
KBI1 220055Z 13008KT 12/02 A2982 RMK A01 T01200020  RH  050%=      5-min Rain = 0
KBI1 220056Z 12008KT 12/02 A2982 RMK A01 T01190020  RH  051%=      5-min Rain = 0
KBI1 220057Z 13009KT 12/02 A2981 RMK A01 T01190020  RH  051%=      5-min Rain = 0
KBI1 220058Z 12006KT 12/02 A2981 RMK A01 T01190020  RH  051%=      5-min Rain = 0
KBI1 220059Z 12007KT 12/02 A2981 RMK A01 T01180020  RH  051%=      5-min Rain = 0
KBI1 220100Z 12008KT 12/02 A2981 RMK A01 T01170020  RH  051%=      5-min Rain = 0
KBI1 220101Z 12006KT 12/02 A2981 RMK A01 T01160020  RH  052%=      5-min Rain = 0
KBI1 220102Z 12006KT 12/02 A2981 RMK A01 T01160020  RH  052%=      5-min Rain = 0
KBI1 220103Z 11006KT 12/02 A2981 RMK A01 T01150020  RH  052%=      5-min Rain = 0
KBI1 220104Z 12006KT 12/02 A2982 RMK A01 T01150020  RH  052%=      5-min Rain = 0
KBI1 220105Z 11006KT 11/02 A2982 RMK A01 T01140020  RH  053%=      5-min Rain = 0
KBI1 220106Z 11005KT 11/02 A2982 RMK A01 T01130021  RH  053%=      5-min Rain = 0
KBI1 220107Z 12007KT 11/02 A2982 RMK A01 T01120021  RH  053%=      5-min Rain = 0
KBI1 220108Z 11007KT 11/02 A2982 RMK A01 T01120022  RH  054%=      5-min Rain = 0
KBI1 220109Z 11007KT 11/02 A2982 RMK A01 T01120022  RH  054%=      5-min Rain = 0
KBI1 220110Z 11006KT 11/02 A2982 RMK A01 T01120023  RH  054%=      5-min Rain = 0
KBI1 220111Z 11007KT 11/02 A2982 RMK A01 T01120023  RH  054%=      5-min Rain = 0
KBI1 220112Z 12008KT 11/02 A2982 RMK A01 T01110024  RH  055%=      5-min Rain = 0
KBI1 220113Z 12006KT 11/02 A2982 RMK A01 T01100024  RH  055%=      5-min Rain = 0
KBI1 220114Z 11008KT 11/03 A2982 RMK A01 T01100025  RH  056%=      5-min Rain = 0
KBI1 220115Z 12009KT 11/03 A2982 RMK A01 T01090026  RH  056%=      5-min Rain = 0
KBI1 220116Z 12009KT 11/03 A2982 RMK A01 T01090026  RH  057%=      5-min Rain = 0
KBI1 220117Z 12008KT 11/03 A2982 RMK A01 T01080026  RH  057%=      5-min Rain = 0
KBI1 220118Z 12009KT 11/03 A2982 RMK A01 T01080026  RH  057%=      5-min Rain = 0
KBI1 220119Z 12008KT 11/03 A2982 RMK A01 T01080027  RH  057%=      5-min Rain = 0
KBI1 220120Z 13009KT 11/03 A2982 RMK A01 T01070027  RH  057%=      5-min Rain = 0
KBI1 220121Z 12009KT 11/03 A2982 RMK A01 T01060027  RH  058%=      5-min Rain = 0
KBI1 220122Z 12009KT 11/03 A2982 RMK A01 T01060027  RH  058%=      5-min Rain = 0
KBI1 220123Z 12008KT 11/03 A2982 RMK A01 T01060027  RH  058%=      5-min Rain = 0
KBI1 220124Z 13009KT 11/03 A2982 RMK A01 T01060027  RH  058%=      5-min Rain = 0
KBI1 220125Z 13009KT 11/03 A2982 RMK A01 T01060028  RH  058%=      5-min Rain = 0
KBI1 220126Z 13008KT 11/03 A2982 RMK A01 T01060027  RH  058%=      5-min Rain = 0
KBI1 220127Z 13009KT 11/03 A2982 RMK A01 T01060027  RH  058%=      5-min Rain = 0
KBI1 220128Z 13011KT 11/03 A2982 RMK A01 T01060027  RH  058%=      5-min Rain = 0
KBI1 220129Z 13009KT 11/03 A2982 RMK A01 T01060028  RH  058%=      5-min Rain = 0
KBI1 220130Z 14009KT 11/03 A2982 RMK A01 T01060027  RH  058%=      5-min Rain = 0
KBI1 220131Z 14008KT 11/03 A2982 RMK A01 T01060027  RH  058%=      5-min Rain = 0
KBI1 220132Z 14008KT 11/03 A2982 RMK A01 T01050027  RH  058%=      5-min Rain = 0
KBI1 220133Z 13008G13KT 11/03 A2983 RMK A01 T01050027  RH  059%=      5-min Rain = 0
KBI1 220134Z 13007KT 11/03 A2983 RMK A01 T01050027  RH  059%=      5-min Rain = 0
KBI1 220135Z 14009G14KT 10/03 A2982 RMK A01 T01040027  RH  059%=      5-min Rain = 0
KBI1 220136Z 14007KT 10/03 A2982 RMK A01 T01040027  RH  059%=      5-min Rain = 0
KBI1 220137Z 14010KT 10/03 A2982 RMK A01 T01040027  RH  059%=      5-min Rain = 0
KBI1 220138Z 13010KT 10/03 A2982 RMK A01 T01030027  RH  059%=      5-min Rain = 0
KBI1 220139Z 13009KT 10/03 A2982 RMK A01 T01030027  RH  059%=      5-min Rain = 0
KBI1 220140Z 13008KT 10/03 A2983 RMK A01 T01030027  RH  059%=      5-min Rain = 0
KBI1 220141Z 13009KT 10/03 A2983 RMK A01 T01020027  RH  059%=      5-min Rain = 0
KBI1 220142Z 14006KT 10/03 A2983 RMK A01 T01030027  RH  059%=      5-min Rain = 0
KBI1 220143Z 14006KT 10/03 A2983 RMK A01 T01020027  RH  060%=      5-min Rain = 0
KBI1 220144Z 13008KT 10/03 A2983 RMK A01 T01010026  RH  060%=      5-min Rain = 0
KBI1 220145Z 14008KT 10/03 A2983 RMK A01 T01010026  RH  060%=      5-min Rain = 0
KBI1 220146Z 14007KT 10/03 A2983 RMK A01 T01010027  RH  060%=      5-min Rain = 0
KBI1 220147Z 13008KT 10/03 A2983 RMK A01 T01000026  RH  060%=      5-min Rain = 0
KBI1 220148Z 13009KT 10/03 A2983 RMK A01 T01000026  RH  060%=      5-min Rain = 0
KBI1 220149Z 14008KT 10/03 A2983 RMK A01 T01000026  RH  060%=      5-min Rain = 0
KBI1 220150Z 13008KT 10/03 A2983 RMK A01 T00990026  RH  060%=      5-min Rain = 0
KBI1 220151Z 13010KT 10/03 A2983 RMK A01 T00990026  RH  061%=      5-min Rain = 0
KBI1 220152Z 14007KT 10/03 A2983 RMK A01 T00980026  RH  061%=      5-min Rain = 0
KBI1 220153Z 13008KT 10/03 A2983 RMK A01 T00980026  RH  061%=      5-min Rain = 0
KBI1 220154Z 14008KT 10/03 A2983 RMK A01 T00980026  RH  061%=      5-min Rain = 0
KBI1 220155Z 14009KT 10/03 A2983 RMK A01 T00970026  RH  061%=      5-min Rain = 0
KBI1 220156Z 13009KT 10/03 A2983 RMK A01 T00970025  RH  061%=      5-min Rain = 0
KBI1 220157Z 13009KT 10/03 A2983 RMK A01 T00980025  RH  061%=      5-min Rain = 0
KBI1 220158Z 13009KT 10/03 A2983 RMK A01 T00970026  RH  061%=      5-min Rain = 0
KBI1 220159Z 13009KT 10/03 A2983 RMK A01 T00960025  RH  061%=      5-min Rain = 0
KBI1 220200Z 13010KT 10/03 A2983 RMK A01 T00970025  RH  061%=      5-min Rain = 0
KBI1 220201Z 13011KT 10/03 A2983 RMK A01 T00970025  RH  061%=      5-min Rain = 0
KBI1 220202Z 13009KT 10/03 A2983 RMK A01 T00960025  RH  061%=      5-min Rain = 0
KBI1 220203Z 13009KT 10/03 A2983 RMK A01 T00960025  RH  061%=      5-min Rain = 0
KBI1 220204Z 13010KT 10/03 A2983 RMK A01 T00960025  RH  061%=      5-min Rain = 0
KBI1 220205Z 13009KT 10/03 A2983 RMK A01 T00960025  RH  061%=      5-min Rain = 0
KBI1 220206Z 13009KT 10/02 A2984 RMK A01 T00950024  RH  061%=      5-min Rain = 0
KBI1 220207Z 13009KT 09/02 A2984 RMK A01 T00940024  RH  062%=      5-min Rain = 0
KBI1 220208Z 13009KT 09/02 A2984 RMK A01 T00940024  RH  062%=      5-min Rain = 0
KBI1 220209Z 13009KT 09/02 A2984 RMK A01 T00930024  RH  062%=      5-min Rain = 0
KBI1 220210Z 13007KT 09/02 A2984 RMK A01 T00920024  RH  062%=      5-min Rain = 0
KBI1 220211Z 12008KT 09/02 A2984 RMK A01 T00910024  RH  063%=      5-min Rain = 0
KBI1 220212Z 13007KT 09/02 A2984 RMK A01 T00910024  RH  063%=      5-min Rain = 0
KBI1 220213Z 13008KT 09/02 A2984 RMK A01 T00900024  RH  063%=      5-min Rain = 0
KBI1 220214Z 13007KT 09/02 A2985 RMK A01 T00890023  RH  063%=      5-min Rain = 0
KBI1 220215Z 13009KT 09/02 A2985 RMK A01 T00890023  RH  064%=      5-min Rain = 0
KBI1 220216Z 13010KT 09/02 A2985 RMK A01 T00880023  RH  064%=      5-min Rain = 0
KBI1 220217Z 12009KT 09/02 A2985 RMK A01 T00880023  RH  064%=      5-min Rain = 0
KBI1 220218Z 12009KT 09/02 A2984 RMK A01 T00880023  RH  064%=      5-min Rain = 0
KBI1 220219Z 13009KT 09/02 A2984 RMK A01 T00880023  RH  064%=      5-min Rain = 0
KBI1 220220Z 12008KT 09/02 A2984 RMK A01 T00880023  RH  064%=      5-min Rain = 0
KBI1 220221Z 13010KT 09/02 A2984 RMK A01 T00870023  RH  064%=      5-min Rain = 0
KBI1 220222Z 13008KT 09/02 A2984 RMK A01 T00870023  RH  064%=      5-min Rain = 0
KBI1 220223Z 13009KT 09/02 A2985 RMK A01 T00870023  RH  064%=      5-min Rain = 0
KBI1 220224Z 13009KT 09/02 A2985 RMK A01 T00870022  RH  064%=      5-min Rain = 0
KBI1 220225Z 13009KT 09/02 A2985 RMK A01 T00870022  RH  064%=      5-min Rain = 0
KBI1 220226Z 13008KT 09/02 A2985 RMK A01 T00880023  RH  064%=      5-min Rain = 0
KBI1 220227Z 13007KT 09/02 A2985 RMK A01 T00870022  RH  064%=      5-min Rain = 0
KBI1 220228Z 12008KT 09/02 A2985 RMK A01 T00870022  RH  064%=      5-min Rain = 0
KBI1 220229Z 12008KT 09/02 A2985 RMK A01 T00860022  RH  064%=      5-min Rain = 0
KBI1 220230Z 13007KT 09/02 A2985 RMK A01 T00860022  RH  064%=      5-min Rain = 0
KBI1 220231Z 13009KT 09/02 A2985 RMK A01 T00860022  RH  064%=      5-min Rain = 0
KBI1 220232Z 13007KT 09/02 A2985 RMK A01 T00860021  RH  064%=      5-min Rain = 0
KBI1 220233Z 13008KT 09/02 A2985 RMK A01 T00850021  RH  064%=      5-min Rain = 0
KBI1 220234Z 13007KT 09/02 A2985 RMK A01 T00850021  RH  064%=      5-min Rain = 0
KBI1 220235Z 13007KT 09/02 A2985 RMK A01 T00850021  RH  064%=      5-min Rain = 0
KBI1 220236Z 14006KT 09/02 A2985 RMK A01 T00850021  RH  064%=      5-min Rain = 0
KBI1 220237Z 13007KT 09/02 A2985 RMK A01 T00850021  RH  064%=      5-min Rain = 0
KBI1 220238Z 13008KT 09/02 A2985 RMK A01 T00850020  RH  064%=      5-min Rain = 0
KBI1 220239Z 13008KT 09/02 A2985 RMK A01 T00850020  RH  064%=      5-min Rain = 0
KBI1 220240Z 13009KT 09/02 A2985 RMK A01 T00850020  RH  064%=      5-min Rain = 0
KBI1 220241Z 14008KT 09/02 A2985 RMK A01 T00850020  RH  064%=      5-min Rain = 0
KBI1 220242Z 14008KT 09/02 A2985 RMK A01 T00850020  RH  064%=      5-min Rain = 0
KBI1 220243Z 13009KT 09/02 A2985 RMK A01 T00850020  RH  064%=      5-min Rain = 0
KBI1 220244Z 13009KT 09/02 A2985 RMK A01 T00850020  RH  064%=      5-min Rain = 0
KBI1 220245Z 14010KT 09/02 A2985 RMK A01 T00850020  RH  064%=      5-min Rain = 0
KBI1 220246Z 14009KT 08/02 A2985 RMK A01 T00840020  RH  064%=      5-min Rain = 0
KBI1 220247Z 14011KT 09/02 A2985 RMK A01 T00850020  RH  064%=      5-min Rain = 0
KBI1 220248Z 13009KT 09/02 A2985 RMK A01 T00850020  RH  064%=      5-min Rain = 0
KBI1 220249Z 14010KT 08/02 A2985 RMK A01 T00840019  RH  064%=      5-min Rain = 0
KBI1 220250Z 13010KT 08/02 A2985 RMK A01 T00840019  RH  064%=      5-min Rain = 0
KBI1 220251Z 13011KT 08/02 A2985 RMK A01 T00840019  RH  064%=      5-min Rain = 0
KBI1 220252Z 13010KT 08/02 A2985 RMK A01 T00840019  RH  064%=      5-min Rain = 0
KBI1 220253Z 13011KT 08/02 A2985 RMK A01 T00840019  RH  063%=      5-min Rain = 0
KBI1 220254Z 13009KT 09/02 A2985 RMK A01 T00850019  RH  063%=      5-min Rain = 0
KBI1 220255Z 13010KT 08/02 A2985 RMK A01 T00840019  RH  063%=      5-min Rain = 0
KBI1 220256Z 14008KT 08/02 A2985 RMK A01 T00840019  RH  063%=      5-min Rain = 0
KBI1 220257Z 13011KT 08/02 A2985 RMK A01 T00840018  RH  063%=      5-min Rain = 0
KBI1 220258Z 14008KT 08/02 A2985 RMK A01 T00840018  RH  063%=      5-min Rain = 0
KBI1 220259Z 13009KT 09/02 A2985 RMK A01 T00850018  RH  063%=      5-min Rain = 0
KBI1 220300Z 13008KT 08/02 A2985 RMK A01 T00840018  RH  063%=      5-min Rain = 0
KBI1 220301Z 14008KT 09/02 A2985 RMK A01 T00850018  RH  063%=      5-min Rain = 0
KBI1 220302Z 13009KT 09/02 A2985 RMK A01 T00850018  RH  063%=      5-min Rain = 0
KBI1 220303Z 13008G13KT 09/02 A2985 RMK A01 T00850017  RH  063%=      5-min Rain = 0
KBI1 220304Z 13009KT 09/02 A2985 RMK A01 T00850017  RH  063%=      5-min Rain = 0
KBI1 220305Z 14009KT 09/02 A2985 RMK A01 T00850017  RH  062%=      5-min Rain = 0
KBI1 220306Z 13009KT 09/02 A2985 RMK A01 T00850017  RH  062%=      5-min Rain = 0
KBI1 220307Z 13009G14KT 09/02 A2985 RMK A01 T00850017  RH  062%=      5-min Rain = 0
KBI1 220308Z 13010KT 09/02 A2985 RMK A01 T00850017  RH  062%=      5-min Rain = 0
KBI1 220309Z 13009KT 08/02 A2985 RMK A01 T00840017  RH  062%=      5-min Rain = 0
KBI1 220310Z 13008KT 09/02 A2985 RMK A01 T00850017  RH  062%=      5-min Rain = 0
KBI1 220311Z 13008KT 08/02 A2985 RMK A01 T00840017  RH  062%=      5-min Rain = 0
KBI1 220312Z 12008KT 08/02 A2985 RMK A01 T00840016  RH  062%=      5-min Rain = 0
KBI1 220313Z 13009KT 08/02 A2985 RMK A01 T00840016  RH  063%=      5-min Rain = 0
KBI1 220314Z 13008KT 08/02 A2985 RMK A01 T00830016  RH  063%=      5-min Rain = 0
KBI1 220315Z 13008KT 08/02 A2985 RMK A01 T00830016  RH  063%=      5-min Rain = 0
KBI1 220316Z 13008KT 08/02 A2985 RMK A01 T00830016  RH  062%=      5-min Rain = 0
KBI1 220317Z 13008KT 08/02 A2985 RMK A01 T00830016  RH  062%=      5-min Rain = 0
KBI1 220318Z 13008KT 08/02 A2985 RMK A01 T00820015  RH  063%=      5-min Rain = 0
KBI1 220319Z 13008KT 08/02 A2985 RMK A01 T00820015  RH  063%=      5-min Rain = 0
KBI1 220320Z 13007KT 08/02 A2985 RMK A01 T00820015  RH  063%=      5-min Rain = 0
KBI1 220321Z 13007KT 08/02 A2985 RMK A01 T00810015  RH  063%=      5-min Rain = 0
KBI1 220322Z 13007KT 08/02 A2985 RMK A01 T00810015  RH  063%=      5-min Rain = 0
KBI1 220323Z 14009KT 08/01 A2985 RMK A01 T00800014  RH  063%=      5-min Rain = 0
KBI1 220324Z 13009KT 08/01 A2985 RMK A01 T00800014  RH  063%=      5-min Rain = 0
KBI1 220325Z 13009KT 08/01 A2985 RMK A01 T00810014  RH  063%=      5-min Rain = 0
KBI1 220326Z 13008KT 08/01 A2985 RMK A01 T00810014  RH  063%=      5-min Rain = 0
KBI1 220327Z 13008KT 08/01 A2985 RMK A01 T00810014  RH  063%=      5-min Rain = 0
KBI1 220328Z 13008KT 08/01 A2985 RMK A01 T00800014  RH  063%=      5-min Rain = 0
KBI1 220329Z 13008KT 08/01 A2985 RMK A01 T00800014  RH  063%=      5-min Rain = 0
KBI1 220330Z 13008KT 08/01 A2985 RMK A01 T00800014  RH  063%=      5-min Rain = 0
KBI1 220331Z 12008G13KT 08/01 A2985 RMK A01 T00790014  RH  063%=      5-min Rain = 0
KBI1 220332Z 13009KT 08/01 A2985 RMK A01 T00790014  RH  063%=      5-min Rain = 0
KBI1 220333Z 13009KT 08/01 A2985 RMK A01 T00790014  RH  063%=      5-min Rain = 0
KBI1 220334Z 13009KT 08/01 A2985 RMK A01 T00790013  RH  063%=      5-min Rain = 0
KBI1 220335Z 13009KT 08/01 A2985 RMK A01 T00790013  RH  063%=      5-min Rain = 0
KBI1 220336Z 13008KT 08/01 A2985 RMK A01 T00790014  RH  063%=      5-min Rain = 0
KBI1 220337Z 13010KT 08/01 A2985 RMK A01 T00790014  RH  064%=      5-min Rain = 0
KBI1 220338Z 13010KT 08/01 A2985 RMK A01 T00790014  RH  064%=      5-min Rain = 0
KBI1 220339Z 13010KT 08/01 A2985 RMK A01 T00790014  RH  064%=      5-min Rain = 0
KBI1 220340Z 13009KT 08/01 A2985 RMK A01 T00790014  RH  064%=      5-min Rain = 0
KBI1 220341Z 13010KT 08/01 A2985 RMK A01 T00790014  RH  064%=      5-min Rain = 0
KBI1 220342Z 13009KT 08/01 A2985 RMK A01 T00780014  RH  064%=      5-min Rain = 0
KBI1 220343Z 13008KT 08/01 A2985 RMK A01 T00780014  RH  064%=      5-min Rain = 0
KBI1 220344Z 13010KT 08/01 A2985 RMK A01 T00770014  RH  064%=      5-min Rain = 0
KBI1 220345Z 12010KT 08/01 A2985 RMK A01 T00770014  RH  065%=      5-min Rain = 0
KBI1 220346Z 13010KT 08/01 A2985 RMK A01 T00760014  RH  065%=      5-min Rain = 0
KBI1 220347Z 12010KT 08/01 A2985 RMK A01 T00760014  RH  065%=      5-min Rain = 0
KBI1 220348Z 12011KT 08/01 A2985 RMK A01 T00760014  RH  065%=      5-min Rain = 0
KBI1 220349Z 13011KT 08/01 A2985 RMK A01 T00750014  RH  065%=      5-min Rain = 0
KBI1 220350Z 12010KT 08/02 A2985 RMK A01 T00750015  RH  066%=      5-min Rain = 0
KBI1 220351Z 12009KT 07/02 A2985 RMK A01 T00740015  RH  066%=      5-min Rain = 0
KBI1 220352Z 12009KT 07/02 A2985 RMK A01 T00740015  RH  066%=      5-min Rain = 0
KBI1 220353Z 12008KT 07/02 A2985 RMK A01 T00740015  RH  066%=      5-min Rain = 0
KBI1 220354Z 12009KT 07/02 A2985 RMK A01 T00730015  RH  066%=      5-min Rain = 0
KBI1 220355Z 12009KT 07/02 A2985 RMK A01 T00730015  RH  066%=      5-min Rain = 0
KBI1 220356Z 12009KT 07/02 A2985 RMK A01 T00730015  RH  067%=      5-min Rain = 0
KBI1 220357Z 12009KT 07/02 A2985 RMK A01 T00730015  RH  067%=      5-min Rain = 0
KBI1 220358Z 12008KT 07/02 A2985 RMK A01 T00720015  RH  067%=      5-min Rain = 0
KBI1 220359Z 12008KT 07/02 A2985 RMK A01 T00720015  RH  067%=      5-min Rain = 0
KBI1 220400Z 12009KT 07/02 A2985 RMK A01 T00720015  RH  067%=      5-min Rain = 0
KBI1 220401Z 12009KT 07/02 A2985 RMK A01 T00710015  RH  068%=      5-min Rain = 0
KBI1 220402Z 12010KT 07/02 A2985 RMK A01 T00710015  RH  068%=      5-min Rain = 0
KBI1 220403Z 12010KT 07/02 A2985 RMK A01 T00710016  RH  068%=      5-min Rain = 0
KBI1 220404Z 12008KT 07/02 A2986 RMK A01 T00720016  RH  067%=      5-min Rain = 0
KBI1 220405Z 12009KT 07/02 A2986 RMK A01 T00720016  RH  067%=      5-min Rain = 0
KBI1 220406Z 11009KT 07/02 A2986 RMK A01 T00720016  RH  067%=      5-min Rain = 0
KBI1 220407Z 11008KT 07/02 A2986 RMK A01 T00720016  RH  068%=      5-min Rain = 0
KBI1 220408Z 12009KT 07/02 A2986 RMK A01 T00720016  RH  068%=      5-min Rain = 0
KBI1 220409Z 12007KT 07/02 A2986 RMK A01 T00730016  RH  067%=      5-min Rain = 0
KBI1 220410Z 12007KT 07/02 A2986 RMK A01 T00730017  RH  067%=      5-min Rain = 0
KBI1 220411Z 12008KT 07/02 A2986 RMK A01 T00730016  RH  067%=      5-min Rain = 0
KBI1 220412Z 12007KT 07/02 A2986 RMK A01 T00730016  RH  067%=      5-min Rain = 0
KBI1 220413Z 12010KT 07/02 A2986 RMK A01 T00730017  RH  067%=      5-min Rain = 0
KBI1 220414Z 12009KT 07/02 A2986 RMK A01 T00740017  RH  067%=      5-min Rain = 0
KBI1 220415Z 12009KT 07/02 A2986 RMK A01 T00740017  RH  067%=      5-min Rain = 0
KBI1 220416Z 12008KT 07/02 A2986 RMK A01 T00730017  RH  067%=      5-min Rain = 0
KBI1 220417Z 12007KT 07/02 A2986 RMK A01 T00740018  RH  068%=      5-min Rain = 0
KBI1 220418Z 11008KT 07/02 A2986 RMK A01 T00740018  RH  068%=      5-min Rain = 0
KBI1 220419Z 11007KT 07/02 A2986 RMK A01 T00740017  RH  068%=      5-min Rain = 0
KBI1 220420Z 11007KT 07/02 A2986 RMK A01 T00740018  RH  067%=      5-min Rain = 0
KBI1 220421Z 11008KT 07/02 A2986 RMK A01 T00740018  RH  067%=      5-min Rain = 0
KBI1 220422Z 12008KT 07/02 A2986 RMK A01 T00740018  RH  067%=      5-min Rain = 0
KBI1 220423Z 11009KT 07/02 A2986 RMK A01 T00740018  RH  067%=      5-min Rain = 0
KBI1 220424Z 12009KT 07/02 A2986 RMK A01 T00740018  RH  067%=      5-min Rain = 0
KBI1 220425Z 12007KT 07/02 A2986 RMK A01 T00740018  RH  067%=      5-min Rain = 0
KBI1 220426Z 11007KT 07/02 A2986 RMK A01 T00740018  RH  067%=      5-min Rain = 0
KBI1 220427Z 10008KT 07/02 A2986 RMK A01 T00730018  RH  068%=      5-min Rain = 0
KBI1 220428Z 11008KT 07/02 A2986 RMK A01 T00720018  RH  068%=      5-min Rain = 0
KBI1 220429Z 11009KT 07/02 A2986 RMK A01 T00720018  RH  068%=      5-min Rain = 0
KBI1 220430Z 11009KT 07/02 A2986 RMK A01 T00720018  RH  069%=      5-min Rain = 0
KBI1 220431Z 11010KT 07/02 A2986 RMK A01 T00720019  RH  069%=      5-min Rain = 0
KBI1 220432Z 11010KT 07/02 A2986 RMK A01 T00720019  RH  069%=      5-min Rain = 0
KBI1 220433Z 11009KT 07/02 A2986 RMK A01 T00720019  RH  069%=      5-min Rain = 0
KBI1 220434Z 11009KT 07/02 A2986 RMK A01 T00720019  RH  069%=      5-min Rain = 0
KBI1 220435Z 11009KT 07/02 A2986 RMK A01 T00720020  RH  069%=      5-min Rain = 0
KBI1 220436Z 11010KT 07/02 A2986 RMK A01 T00720020  RH  069%=      5-min Rain = 0
KBI1 220437Z 12011KT 07/02 A2986 RMK A01 T00720020  RH  070%=      5-min Rain = 0
KBI1 220438Z 11009KT 07/02 A2986 RMK A01 T00720020  RH  070%=      5-min Rain = 0
KBI1 220439Z 11010KT 07/02 A2986 RMK A01 T00720021  RH  070%=      5-min Rain = 0
KBI1 220440Z 11010KT 07/02 A2986 RMK A01 T00720020  RH  070%=      5-min Rain = 0
KBI1 220441Z 11009KT 07/02 A2986 RMK A01 T00720021  RH  070%=      5-min Rain = 0
KBI1 220442Z 12010KT 07/02 A2986 RMK A01 T00730021  RH  070%=      5-min Rain = 0
KBI1 220443Z 12010KT 07/02 A2986 RMK A01 T00730021  RH  070%=      5-min Rain = 0
KBI1 220444Z 11010KT 07/02 A2986 RMK A01 T00730021  RH  070%=      5-min Rain = 0
KBI1 220445Z 12009G15KT 07/02 A2986 RMK A01 T00720021  RH  070%=      5-min Rain = 0
KBI1 220446Z 11010KT 07/02 A2986 RMK A01 T00720022  RH  070%=      5-min Rain = 0
KBI1 220447Z 12011KT 07/02 A2986 RMK A01 T00720022  RH  070%=      5-min Rain = 0
KBI1 220448Z 12012KT 07/02 A2986 RMK A01 T00720022  RH  070%=      5-min Rain = 0
KBI1 220449Z 12011KT 07/02 A2986 RMK A01 T00720022  RH  071%=      5-min Rain = 0
KBI1 220450Z 12013KT 07/02 A2986 RMK A01 T00710022  RH  071%=      5-min Rain = 0
KBI1 220451Z 12014KT 07/02 A2986 RMK A01 T00710022  RH  071%=      5-min Rain = 0
KBI1 220452Z 12012KT 07/02 A2986 RMK A01 T00710022  RH  071%=      5-min Rain = 0
KBI1 220453Z 13012G19KT 07/02 A2986 RMK A01 T00710022  RH  071%=      5-min Rain = 0
KBI1 220454Z 12013KT 07/02 A2986 RMK A01 T00710022  RH  071%=      5-min Rain = 0
KBI1 220455Z 13012G17KT 07/02 A2986 RMK A01 T00710022  RH  071%=      5-min Rain = 0
KBI1 220456Z 12012KT 07/02 A2986 RMK A01 T00710022  RH  071%=      5-min Rain = 0
KBI1 220457Z 12012KT 07/02 A2987 RMK A01 T00700021  RH  071%=      5-min Rain = 0
KBI1 220458Z 12012KT 07/02 A2987 RMK A01 T00690021  RH  071%=      5-min Rain = 0
KBI1 220459Z 13012KT 07/02 A2987 RMK A01 T00690021  RH  071%=      5-min Rain = 0
KBI1 220500Z 12012KT 07/02 A2987 RMK A01 T00680020  RH  072%=      5-min Rain = 0
KBI1 220501Z 13011KT 07/02 A2987 RMK A01 T00680020  RH  072%=      5-min Rain = 0
KBI1 220502Z 13010KT 07/02 A2987 RMK A01 T00670020  RH  072%=      5-min Rain = 0
KBI1 220503Z 12011KT 07/02 A2987 RMK A01 T00660020  RH  072%=      5-min Rain = 0
KBI1 220504Z 12011KT 07/02 A2987 RMK A01 T00650020  RH  073%=      5-min Rain = 0
KBI1 220505Z 12011KT 07/02 A2987 RMK A01 T00650020  RH  073%=      5-min Rain = 0
KBI1 220506Z 12012KT 06/02 A2987 RMK A01 T00640020  RH  073%=      5-min Rain = 0
KBI1 220507Z 12012KT 06/02 A2987 RMK A01 T00640020  RH  074%=      5-min Rain = 0
KBI1 220508Z 13011KT 06/02 A2988 RMK A01 T00640020  RH  074%=      5-min Rain = 0
KBI1 220509Z 13012KT 06/02 A2988 RMK A01 T00640020  RH  074%=      5-min Rain = 0
KBI1 220510Z 12012KT 06/02 A2988 RMK A01 T00640021  RH  074%=      5-min Rain = 0
KBI1 220511Z 13010KT 06/02 A2988 RMK A01 T00630020  RH  074%=      5-min Rain = 0
KBI1 220512Z 13011KT 06/02 A2988 RMK A01 T00630021  RH  074%=      5-min Rain = 0
KBI1 220513Z 13011KT 06/02 A2988 RMK A01 T00630021  RH  074%=      5-min Rain = 0
KBI1 220514Z 13011KT 06/02 A2988 RMK A01 T00630021  RH  075%=      5-min Rain = 0
KBI1 220515Z 13011KT 06/02 A2988 RMK A01 T00630021  RH  075%=      5-min Rain = 0
KBI1 220516Z 12009KT 06/02 A2988 RMK A01 T00630022  RH  075%=      5-min Rain = 0
KBI1 220517Z 12010KT 06/02 A2988 RMK A01 T00630022  RH  075%=      5-min Rain = 0
KBI1 220518Z 12011KT 06/02 A2988 RMK A01 T00630022  RH  075%=      5-min Rain = 0
KBI1 220519Z 13009KT 06/02 A2988 RMK A01 T00640023  RH  075%=      5-min Rain = 0
KBI1 220520Z 13009KT 06/02 A2988 RMK A01 T00630022  RH  075%=      5-min Rain = 0
KBI1 220521Z 13009KT 06/02 A2988 RMK A01 T00620022  RH  076%=      5-min Rain = 0
KBI1 220522Z 13008KT 06/02 A2988 RMK A01 T00620022  RH  076%=      5-min Rain = 0
KBI1 220523Z 13008KT 06/02 A2988 RMK A01 T00610022  RH  076%=      5-min Rain = 0
KBI1 220524Z 13008KT 06/02 A2988 RMK A01 T00610022  RH  076%=      5-min Rain = 0
KBI1 220525Z 13008KT 06/02 A2988 RMK A01 T00610023  RH  077%=      5-min Rain = 0
KBI1 220526Z 13009KT 06/02 A2988 RMK A01 T00610023  RH  077%=      5-min Rain = 0
KBI1 220527Z 13010KT 06/02 A2988 RMK A01 T00600022  RH  077%=      5-min Rain = 0
KBI1 220528Z 13009KT 06/02 A2988 RMK A01 T00600023  RH  077%=      5-min Rain = 0
KBI1 220529Z 14009KT 06/02 A2988 RMK A01 T00600023  RH  077%=      5-min Rain = 0
KBI1 220530Z 13009KT 06/02 A2988 RMK A01 T00600024  RH  078%=      5-min Rain = 0
KBI1 220531Z 14010KT 06/02 A2988 RMK A01 T00600024  RH  078%=      5-min Rain = 0
KBI1 220532Z 14010KT 06/02 A2988 RMK A01 T00600024  RH  078%=      5-min Rain = 0
KBI1 220533Z 14009KT 06/02 A2988 RMK A01 T00600024  RH  078%=      5-min Rain = 0
KBI1 220534Z 13011KT 06/02 A2988 RMK A01 T00590024  RH  078%=      5-min Rain = 0
KBI1 220535Z 13011KT 06/03 A2988 RMK A01 T00600025  RH  078%=      5-min Rain = 0
KBI1 220536Z 12011KT 06/03 A2988 RMK A01 T00600025  RH  078%=      5-min Rain = 0
KBI1 220537Z 12011KT 06/03 A2987 RMK A01 T00600025  RH  078%=      5-min Rain = 0
KBI1 220538Z 12011KT 06/03 A2987 RMK A01 T00600025  RH  078%=      5-min Rain = 0
KBI1 220539Z 12012KT 06/03 A2987 RMK A01 T00600025  RH  078%=      5-min Rain = 0
KBI1 220540Z 12011KT 06/03 A2987 RMK A01 T00590025  RH  079%=      5-min Rain = 0
KBI1 220541Z 12011KT 06/03 A2987 RMK A01 T00590025  RH  079%=      5-min Rain = 0
KBI1 220542Z 12010KT 06/03 A2987 RMK A01 T00580025  RH  079%=      5-min Rain = 0
KBI1 220543Z 12010KT 06/03 A2987 RMK A01 T00580026  RH  079%=      5-min Rain = 0
KBI1 220544Z 12009KT 06/03 A2987 RMK A01 T00580025  RH  079%=      5-min Rain = 0
KBI1 220545Z 12009KT 06/03 A2987 RMK A01 T00580025  RH  079%=      5-min Rain = 0
KBI1 220546Z 12009KT 06/03 A2987 RMK A01 T00580025  RH  080%=      5-min Rain = 0
KBI1 220547Z 12009KT 06/03 A2987 RMK A01 T00570025  RH  080%=      5-min Rain = 0
KBI1 220548Z 13010KT 06/03 A2987 RMK A01 T00570025  RH  080%=      5-min Rain = 0
KBI1 220549Z 13009KT 06/03 A2987 RMK A01 T00560025  RH  080%=      5-min Rain = 0
KBI1 220550Z 13008KT 06/03 A2987 RMK A01 T00560025  RH  080%=      5-min Rain = 0
KBI1 220551Z 13010KT 06/03 A2987 RMK A01 T00560025  RH  081%=      5-min Rain = 0
KBI1 220552Z 13009KT 06/03 A2987 RMK A01 T00560025  RH  081%=      5-min Rain = 0
KBI1 220553Z 13008KT 06/03 A2987 RMK A01 T00550025  RH  081%=      5-min Rain = 0
KBI1 220554Z 13009KT 06/03 A2987 RMK A01 T00550025  RH  081%=      5-min Rain = 0
KBI1 220555Z 13008KT 06/03 A2987 RMK A01 T00550025  RH  081%=      5-min Rain = 0
KBI1 220556Z 13008KT 06/03 A2987 RMK A01 T00550026  RH  081%=      5-min Rain = 0
KBI1 220557Z 13008KT 06/03 A2987 RMK A01 T00550026  RH  081%=      5-min Rain = 0
KBI1 220558Z 13008KT 06/03 A2987 RMK A01 T00550026  RH  082%=      5-min Rain = 0
KBI1 220559Z 13008KT 06/03 A2987 RMK A01 T00550026  RH  082%=      5-min Rain = 0

Page generated in 0.0728 seconds.